Wetterdaten: Montag, 28.02.2022
Datum Zeit Temp. Aussen Temp. o. S. Temp +5cm Feuchte Auss Luftdruck Regen Sonnenschein Regendauer Solar Windben Empfang
28.02.2022 00:00 4,5 C 3,9 C 0,0 C 69 % 1031,0 hPa 0,0 l/m 0 min 0 min 0 W/m 22,5 km/h (4 Bft) 100,00 %
28.02.2022 00:02 4,4 C 3,9 C 0,0 C 69 % 1031,0 hPa 0,0 l/m 0 min 0 min 0 W/m 38,6 km/h (5 Bft) 97,50 %
28.02.2022 00:04 4,4 C 3,9 C 0,0 C 69 % 1031,0 hPa 0,0 l/m 0 min 0 min 0 W/m 25,7 km/h (4 Bft) 100,00 %
28.02.2022 00:08 4,4 C 3,9 C 0,0 C 70 % 1031,1 hPa 0,0 l/m 0 min 0 min 0 W/m 25,7 km/h (4 Bft) 100,00 %
28.02.2022 00:10 4,4 C 3,3 C 0,0 C 69 % 1031,1 hPa 0,0 l/m 0 min 0 min 0 W/m 29,0 km/h (5 Bft) 100,00 %
28.02.2022 00:12 4,4 C 3,3 C 0,0 C 69 % 1031,0 hPa 0,0 l/m 0 min 0 min 0 W/m 25,7 km/h (4 Bft) 100,00 %
28.02.2022 00:14 4,3 C 3,3 C 0,0 C 70 % 1031,0 hPa 0,0 l/m 0 min 0 min 0 W/m 29,0 km/h (5 Bft) 97,87 %
28.02.2022 00:16 4,3 C 3,3 C 0,0 C 70 % 1031,0 hPa 0,0 l/m 0 min 0 min 0 W/m 25,7 km/h (4 Bft) 97,83 %
28.02.2022 00:18 4,3 C 3,3 C 0,0 C 70 % 1031,0 hPa 0,0 l/m 0 min 0 min 0 W/m 22,5 km/h (4 Bft) 100,00 %
28.02.2022 00:20 4,3 C 3,3 C 0,0 C 70 % 1031,0 hPa 0,0 l/m 0 min 0 min 0 W/m 25,7 km/h (4 Bft) 100,00 %
28.02.2022 00:22 4,3 C 3,3 C 0,0 C 70 % 1031,0 hPa 0,0 l/m 0 min 0 min 0 W/m 35,4 km/h (5 Bft) 100,00 %
28.02.2022 00:24 4,2 C 3,3 C 0,0 C 70 % 1031,0 hPa 0,0 l/m 0 min 0 min 0 W/m 25,7 km/h (4 Bft) 100,00 %
28.02.2022 00:26 4,2 C 3,3 C 0,0 C 70 % 1031,0 hPa 0,0 l/m 0 min 0 min 0 W/m 22,5 km/h (4 Bft) 100,00 %
28.02.2022 00:28 4,2 C 3,3 C 0,0 C 70 % 1031,0 hPa 0,0 l/m 0 min 0 min 0 W/m 29,0 km/h (5 Bft) 100,00 %
28.02.2022 00:30 4,2 C 3,3 C 0,0 C 70 % 1031,0 hPa 0,0 l/m 0 min 0 min 0 W/m 32,2 km/h (5 Bft) 100,00 %
28.02.2022 00:32 4,1 C 3,3 C -0,6 C 70 % 1031,0 hPa 0,0 l/m 0 min 0 min 0 W/m 22,5 km/h (4 Bft) 97,87 %
28.02.2022 00:34 4,1 C 3,3 C -0,6 C 70 % 1030,9 hPa 0,0 l/m 0 min 0 min 0 W/m 25,7 km/h (4 Bft) 100,00 %
28.02.2022 00:36 4,1 C 3,3 C -0,6 C 70 % 1031,0 hPa 0,0 l/m 0 min 0 min 0 W/m 25,7 km/h (4 Bft) 100,00 %
28.02.2022 00:38 4,1 C 3,3 C -0,6 C 71 % 1031,0 hPa 0,0 l/m 0 min 0 min 0 W/m 19,3 km/h (3 Bft) 100,00 %
28.02.2022 00:40 4,0 C 3,3 C -0,6 C 71 % 1031,0 hPa 0,0 l/m 0 min 0 min 0 W/m 25,7 km/h (4 Bft) 100,00 %
28.02.2022 00:42 4,0 C 3,3 C -0,6 C 71 % 1031,1 hPa 0,0 l/m 0 min 0 min 0 W/m 16,1 km/h (3 Bft) 100,00 %
28.02.2022 00:44 3,9 C 2,8 C -0,6 C 71 % 1031,1 hPa 0,0 l/m 0 min 0 min 0 W/m 22,5 km/h (4 Bft) 100,00 %
28.02.2022 00:46 3,9 C 2,8 C -0,6 C 71 % 1031,1 hPa 0,0 l/m 0 min 0 min 0 W/m 19,3 km/h (3 Bft) 100,00 %
28.02.2022 00:48 3,9 C 2,8 C -0,6 C 71 % 1031,2 hPa 0,0 l/m 0 min 0 min 0 W/m 22,5 km/h (4 Bft) 97,96 %
28.02.2022 00:50 3,8 C 2,8 C -0,6 C 71 % 1031,2 hPa 0,0 l/m 0 min 0 min 0 W/m 19,3 km/h (3 Bft) 95,74 %
28.02.2022 00:52 3,8 C 2,8 C -0,6 C 71 % 1031,3 hPa 0,0 l/m 0 min 0 min 0 W/m 25,7 km/h (4 Bft) 96,23 %
28.02.2022 00:54 3,8 C 2,8 C -0,6 C 71 % 1031,3 hPa 0,0 l/m 0 min 0 min 0 W/m 12,9 km/h (3 Bft) 72,34 %
28.02.2022 00:56 3,8 C 2,8 C -0,6 C 72 % 1031,3 hPa 0,0 l/m 0 min 0 min 0 W/m 19,3 km/h (3 Bft) 82,22 %
28.02.2022 00:58 3,7 C 2,8 C -0,6 C 72 % 1031,3 hPa 0,0 l/m 0 min 0 min 0 W/m 16,1 km/h (3 Bft) 97,87 %
28.02.2022 01:00 3,7 C 2,8 C -0,6 C 72 % 1031,4 hPa 0,0 l/m 0 min 0 min 0 W/m 16,1 km/h (3 Bft) 97,37 %
28.02.2022 01:02 3,7 C 2,8 C -0,6 C 72 % 1031,4 hPa 0,0 l/m 0 min 0 min 0 W/m 25,7 km/h (4 Bft) 95,74 %
28.02.2022 01:04 3,7 C 2,8 C -0,6 C 72 % 1031,4 hPa 0,0 l/m 0 min 0 min 0 W/m 22,5 km/h (4 Bft) 95,65 %
28.02.2022 01:06 3,7 C 2,8 C -0,6 C 72 % 1031,5 hPa 0,0 l/m 0 min 0 min 0 W/m 19,3 km/h (3 Bft) 97,87 %
28.02.2022 01:08 3,6 C 2,8 C -0,6 C 72 % 1031,5 hPa 0,0 l/m 0 min 0 min 0 W/m 19,3 km/h (3 Bft) 98,00 %
28.02.2022 01:10 3,6 C 2,8 C -0,6 C 72 % 1031,5 hPa 0,0 l/m 0 min 0 min 0 W/m 25,7 km/h (4 Bft) 97,87 %
28.02.2022 01:12 3,6 C 2,8 C -0,6 C 72 % 1031,6 hPa 0,0 l/m 0 min 0 min 0 W/m 22,5 km/h (4 Bft) 93,62 %
28.02.2022 01:14 3,6 C 2,8 C -0,6 C 72 % 1031,6 hPa 0,0 l/m 0 min 0 min 0 W/m 19,3 km/h (3 Bft) 91,49 %
28.02.2022 01:16 3,6 C 2,8 C -0,6 C 72 % 1031,6 hPa 0,0 l/m 0 min 0 min 0 W/m 25,7 km/h (4 Bft) 93,48 %
28.02.2022 01:18 3,6 C 2,8 C -0,6 C 72 % 1031,6 hPa 0,0 l/m 0 min 0 min 0 W/m 16,1 km/h (3 Bft) 93,62 %
28.02.2022 01:20 3,6 C 2,8 C -1,1 C 72 % 1031,6 hPa 0,0 l/m 0 min 0 min 0 W/m 19,3 km/h (3 Bft) 93,88 %
28.02.2022 01:22 3,5 C 2,8 C -1,1 C 72 % 1031,7 hPa 0,0 l/m 0 min 0 min 0 W/m 16,1 km/h (3 Bft) 93,62 %
28.02.2022 01:24 3,5 C 2,8 C -1,1 C 72 % 1031,6 hPa 0,0 l/m 0 min 0 min 0 W/m 16,1 km/h (3 Bft) 93,62 %
28.02.2022 01:26 3,4 C 2,8 C -1,1 C 73 % 1031,6 hPa 0,0 l/m 0 min 0 min 0 W/m 19,3 km/h (3 Bft) 91,30 %
28.02.2022 01:28 3,4 C 2,8 C -1,1 C 73 % 1031,6 hPa 0,0 l/m 0 min 0 min 0 W/m 19,3 km/h (3 Bft) 93,62 %
28.02.2022 01:30 3,4 C 2,8 C -1,1 C 73 % 1031,6 hPa 0,0 l/m 0 min 0 min 0 W/m 19,3 km/h (3 Bft) 87,23 %
28.02.2022 01:32 3,4 C 2,8 C -1,1 C 73 % 1031,7 hPa 0,0 l/m 0 min 0 min 0 W/m 16,1 km/h (3 Bft) 93,62 %
28.02.2022 01:34 3,3 C 2,8 C -1,1 C 73 % 1031,6 hPa 0,0 l/m 0 min 0 min 0 W/m 19,3 km/h (3 Bft) 93,62 %
28.02.2022 01:36 3,3 C 2,8 C -1,1 C 73 % 1031,6 hPa 0,0 l/m 0 min 0 min 0 W/m 22,5 km/h (4 Bft) 93,62 %
28.02.2022 01:38 3,3 C 2,8 C -1,1 C 73 % 1031,6 hPa 0,0 l/m 0 min 0 min 0 W/m 16,1 km/h (3 Bft) 91,30 %
28.02.2022 01:40 3,3 C 2,8 C -1,1 C 73 % 1031,6 hPa 0,0 l/m 0 min 0 min 0 W/m 16,1 km/h (3 Bft) 93,62 %
28.02.2022 01:42 3,3 C 2,8 C -1,1 C 73 % 1031,6 hPa 0,0 l/m 0 min 0 min 0 W/m 16,1 km/h (3 Bft) 93,62 %
28.02.2022 01:44 3,3 C 2,8 C -1,1 C 73 % 1031,6 hPa 0,0 l/m 0 min 0 min 0 W/m 19,3 km/h (3 Bft) 95,74 %
28.02.2022 01:46 3,3 C 2,2 C -1,1 C 73 % 1031,6 hPa 0,0 l/m 0 min 0 min 0 W/m 12,9 km/h (3 Bft) 95,74 %
28.02.2022 01:48 3,3 C 2,2 C -1,1 C 73 % 1031,6 hPa 0,0 l/m 0 min 0 min 0 W/m 16,1 km/h (3 Bft) 97,87 %
28.02.2022 01:50 3,3 C 2,2 C -1,1 C 73 % 1031,6 hPa 0,0 l/m 0 min 0 min 0 W/m 19,3 km/h (3 Bft) 97,83 %
28.02.2022 01:52 3,2 C 2,2 C -1,1 C 73 % 1031,6 hPa 0,0 l/m 0 min 0 min 0 W/m 19,3 km/h (3 Bft) 100,00 %
28.02.2022 01:54 3,2 C 2,2 C -1,1 C 73 % 1031,7 hPa 0,0 l/m 0 min 0 min 0 W/m 12,9 km/h (3 Bft) 97,87 %
28.02.2022 01:56 3,2 C 2,2 C -1,1 C 73 % 1031,6 hPa 0,0 l/m 0 min 0 min 0 W/m 12,9 km/h (3 Bft) 100,00 %
28.02.2022 01:58 3,2 C 2,2 C -1,1 C 73 % 1031,7 hPa 0,0 l/m 0 min 0 min 0 W/m 12,9 km/h (3 Bft) 100,00 %
28.02.2022 02:00 3,2 C 2,2 C -1,1 C 73 % 1031,7 hPa 0,0 l/m 0 min 0 min 0 W/m 16,1 km/h (3 Bft) 100,00 %
28.02.2022 02:02 3,1 C 2,2 C -1,1 C 74 % 1031,7 hPa 0,0 l/m 0 min 0 min 0 W/m 16,1 km/h (3 Bft) 97,83 %
28.02.2022 02:04 3,1 C 2,2 C -1,1 C 74 % 1031,6 hPa 0,0 l/m 0 min 0 min 0 W/m 16,1 km/h (3 Bft) 100,00 %
28.02.2022 02:06 3,1 C 2,2 C -1,1 C 74 % 1031,6 hPa 0,0 l/m 0 min 0 min 0 W/m 19,3 km/h (3 Bft) 97,87 %
28.02.2022 02:08 3,1 C 2,2 C -1,1 C 74 % 1031,6 hPa 0,0 l/m 0 min 0 min 0 W/m 16,1 km/h (3 Bft) 97,87 %
28.02.2022 02:10 3,1 C 2,2 C -1,1 C 74 % 1031,6 hPa 0,0 l/m 0 min 0 min 0 W/m 12,9 km/h (3 Bft) 100,00 %
28.02.2022 02:12 3,1 C 2,2 C -1,1 C 74 % 1031,6 hPa 0,0 l/m 0 min 0 min 0 W/m 12,9 km/h (3 Bft) 100,00 %
28.02.2022 02:14 3,1 C 2,2 C -1,1 C 74 % 1031,5 hPa 0,0 l/m 0 min 0 min 0 W/m 22,5 km/h (4 Bft) 100,00 %
28.02.2022 02:16 3,1 C 2,2 C -1,1 C 74 % 1031,6 hPa 0,0 l/m 0 min 0 min 0 W/m 19,3 km/h (3 Bft) 100,00 %
28.02.2022 02:18 3,1 C 2,2 C -1,1 C 74 % 1031,6 hPa 0,0 l/m 0 min 0 min 0 W/m 12,9 km/h (3 Bft) 97,87 %
28.02.2022 02:20 3,0 C 2,2 C -1,1 C 74 % 1031,5 hPa 0,0 l/m 0 min 0 min 0 W/m 16,1 km/h (3 Bft) 100,00 %
28.02.2022 02:22 3,0 C 2,2 C -1,1 C 74 % 1031,5 hPa 0,0 l/m 0 min 0 min 0 W/m 12,9 km/h (3 Bft) 100,00 %
28.02.2022 02:24 3,0 C 2,2 C -1,1 C 74 % 1031,5 hPa 0,0 l/m 0 min 0 min 0 W/m 16,1 km/h (3 Bft) 100,00 %
28.02.2022 02:26 3,0 C 2,2 C -1,1 C 74 % 1031,6 hPa 0,0 l/m 0 min 0 min 0 W/m 22,5 km/h (4 Bft) 100,00 %
28.02.2022 02:28 3,0 C 2,2 C -1,1 C 74 % 1031,5 hPa 0,0 l/m 0 min 0 min 0 W/m 22,5 km/h (4 Bft) 100,00 %
28.02.2022 02:30 2,9 C 2,2 C -1,1 C 74 % 1031,6 hPa 0,0 l/m 0 min 0 min 0 W/m 19,3 km/h (3 Bft) 97,87 %
28.02.2022 02:32 2,9 C 2,2 C -1,1 C 74 % 1031,5 hPa 0,0 l/m 0 min 0 min 0 W/m 22,5 km/h (4 Bft) 100,00 %
28.02.2022 02:34 2,9 C 2,2 C -1,7 C 74 % 1031,5 hPa 0,0 l/m 0 min 0 min 0 W/m 16,1 km/h (3 Bft) 100,00 %
28.02.2022 02:36 2,9 C 2,2 C -1,7 C 74 % 1031,4 hPa 0,0 l/m 0 min 0 min 0 W/m 16,1 km/h (3 Bft) 100,00 %
28.02.2022 02:38 2,9 C 2,2 C -1,7 C 74 % 1031,5 hPa 0,0 l/m 0 min 0 min 0 W/m 19,3 km/h (3 Bft) 100,00 %
28.02.2022 02:40 2,9 C 2,2 C -1,7 C 74 % 1031,4 hPa 0,0 l/m 0 min 0 min 0 W/m 16,1 km/h (3 Bft) 97,87 %
28.02.2022 02:42 2,8 C 2,2 C -1,7 C 75 % 1031,4 hPa 0,0 l/m 0 min 0 min 0 W/m 22,5 km/h (4 Bft) 100,00 %
28.02.2022 02:44 2,8 C 2,2 C -1,7 C 75 % 1031,4 hPa 0,0 l/m 0 min 0 min 0 W/m 19,3 km/h (3 Bft) 100,00 %
28.02.2022 02:46 2,8 C 2,2 C -1,7 C 75 % 1031,4 hPa 0,0 l/m 0 min 0 min 0 W/m 16,1 km/h (3 Bft) 100,00 %
28.02.2022 02:48 2,8 C 2,2 C -1,7 C 75 % 1031,4 hPa 0,0 l/m 0 min 0 min 0 W/m 22,5 km/h (4 Bft) 97,83 %
28.02.2022 02:50 2,8 C 2,2 C -1,7 C 75 % 1031,4 hPa 0,0 l/m 0 min 0 min 0 W/m 19,3 km/h (3 Bft) 100,00 %
28.02.2022 02:52 2,8 C 2,2 C -1,7 C 75 % 1031,4 hPa 0,0 l/m 0 min 0 min 0 W/m 12,9 km/h (3 Bft) 97,87 %
28.02.2022 02:54 2,8 C 2,2 C -1,7 C 75 % 1031,3 hPa 0,0 l/m 0 min 0 min 0 W/m 22,5 km/h (4 Bft) 100,00 %
28.02.2022 02:56 2,8 C 2,2 C -1,7 C 75 % 1031,3 hPa 0,0 l/m 0 min 0 min 0 W/m 19,3 km/h (3 Bft) 100,00 %
28.02.2022 02:58 2,8 C 2,2 C -1,7 C 75 % 1031,4 hPa 0,0 l/m 0 min 0 min 0 W/m 22,5 km/h (4 Bft) 100,00 %
28.02.2022 03:00 2,8 C 2,2 C -1,7 C 75 % 1031,4 hPa 0,0 l/m 0 min 0 min 0 W/m 16,1 km/h (3 Bft) 100,00 %
28.02.2022 03:02 2,8 C 2,2 C -1,7 C 75 % 1031,4 hPa 0,0 l/m 0 min 0 min 0 W/m 22,5 km/h (4 Bft) 100,00 %
28.02.2022 03:04 2,8 C 2,2 C -1,7 C 75 % 1031,4 hPa 0,0 l/m 0 min 0 min 0 W/m 19,3 km/h (3 Bft) 95,74 %
28.02.2022 03:06 2,8 C 2,2 C -1,7 C 75 % 1031,5 hPa 0,0 l/m 0 min 0 min 0 W/m 19,3 km/h (3 Bft) 95,74 %
28.02.2022 03:08 2,8 C 2,2 C -1,7 C 75 % 1031,5 hPa 0,0 l/m 0 min 0 min 0 W/m 12,9 km/h (3 Bft) 97,87 %
28.02.2022 03:10 2,8 C 2,2 C -1,7 C 75 % 1031,5 hPa 0,0 l/m 0 min 0 min 0 W/m 16,1 km/h (3 Bft) 97,87 %
28.02.2022 03:12 2,8 C 2,2 C -1,7 C 75 % 1031,5 hPa 0,0 l/m 0 min 0 min 0 W/m 16,1 km/h (3 Bft) 97,83 %
28.02.2022 03:14 2,7 C 2,2 C -1,7 C 75 % 1031,5 hPa 0,0 l/m 0 min 0 min 0 W/m 19,3 km/h (3 Bft) 98,00 %
28.02.2022 03:16 2,8 C 1,7 C -1,7 C 75 % 1031,5 hPa 0,0 l/m 0 min 0 min 0 W/m 16,1 km/h (3 Bft) 97,87 %
28.02.2022 03:18 2,7 C 1,7 C -1,7 C 75 % 1031,5 hPa 0,0 l/m 0 min 0 min 0 W/m 19,3 km/h (3 Bft) 97,87 %
28.02.2022 03:20 2,7 C 1,7 C -1,7 C 75 % 1031,5 hPa 0,0 l/m 0 min 0 min 0 W/m 12,9 km/h (3 Bft) 97,87 %
28.02.2022 03:22 2,7 C 1,7 C -1,7 C 75 % 1031,5 hPa 0,0 l/m 0 min 0 min 0 W/m 22,5 km/h (4 Bft) 95,74 %
28.02.2022 03:24 2,7 C 1,7 C -1,7 C 75 % 1031,5 hPa 0,0 l/m 0 min 0 min 0 W/m 12,9 km/h (3 Bft) 95,65 %
28.02.2022 03:26 2,7 C 1,7 C -1,7 C 75 % 1031,5 hPa 0,0 l/m 0 min 0 min 0 W/m 16,1 km/h (3 Bft) 97,87 %
28.02.2022 03:28 2,7 C 1,7 C -1,7 C 75 % 1031,5 hPa 0,0 l/m 0 min 0 min 0 W/m 6,4 km/h (2 Bft) 95,74 %
28.02.2022 03:30 2,6 C 1,7 C -1,7 C 75 % 1031,4 hPa 0,0 l/m 0 min 0 min 0 W/m 12,9 km/h (3 Bft) 95,74 %
28.02.2022 03:32 2,6 C 1,7 C -1,7 C 75 % 1031,4 hPa 0,0 l/m 0 min 0 min 0 W/m 12,9 km/h (3 Bft) 100,00 %
28.02.2022 03:34 2,6 C 1,7 C -1,7 C 75 % 1031,4 hPa 0,0 l/m 0 min 0 min 0 W/m 16,1 km/h (3 Bft) 100,00 %
28.02.2022 03:36 2,6 C 1,7 C -1,7 C 75 % 1031,4 hPa 0,0 l/m 0 min 0 min 0 W/m 16,1 km/h (3 Bft) 100,00 %
28.02.2022 03:38 2,6 C 1,7 C -1,7 C 75 % 1031,3 hPa 0,0 l/m 0 min 0 min 0 W/m 19,3 km/h (3 Bft) 97,87 %
28.02.2022 03:40 2,6 C 1,7 C -1,7 C 75 % 1031,4 hPa 0,0 l/m 0 min 0 min 0 W/m 6,4 km/h (2 Bft) 97,87 %
28.02.2022 03:42 2,6 C 1,7 C -1,7 C 75 % 1031,4 hPa 0,0 l/m 0 min 0 min 0 W/m 12,9 km/h (3 Bft) 97,87 %
28.02.2022 03:44 2,5 C 1,7 C -1,7 C 75 % 1031,4 hPa 0,0 l/m 0 min 0 min 0 W/m 6,4 km/h (2 Bft) 97,87 %
28.02.2022 03:46 2,5 C 1,7 C -1,7 C 75 % 1031,5 hPa 0,0 l/m 0 min 0 min 0 W/m 6,4 km/h (2 Bft) 97,83 %
28.02.2022 03:48 2,4 C 1,1 C -2,2 C 75 % 1031,5 hPa 0,0 l/m 0 min 0 min 0 W/m 9,7 km/h (2 Bft) 97,87 %
28.02.2022 03:50 2,4 C 1,1 C -2,2 C 75 % 1031,5 hPa 0,0 l/m 0 min 0 min 0 W/m 12,9 km/h (3 Bft) 97,87 %
28.02.2022 03:52 2,4 C 1,1 C -2,2 C 75 % 1031,5 hPa 0,0 l/m 0 min 0 min 0 W/m 12,9 km/h (3 Bft) 97,87 %
28.02.2022 03:54 2,4 C 1,1 C -2,2 C 75 % 1031,5 hPa 0,0 l/m 0 min 0 min 0 W/m 12,9 km/h (3 Bft) 97,87 %
28.02.2022 03:56 2,3 C 1,1 C -2,2 C 75 % 1031,5 hPa 0,0 l/m 0 min 0 min 0 W/m 12,9 km/h (3 Bft) 95,74 %
28.02.2022 03:58 2,3 C 1,1 C -2,2 C 75 % 1031,5 hPa 0,0 l/m 0 min 0 min 0 W/m 12,9 km/h (3 Bft) 95,65 %
28.02.2022 04:00 2,3 C 1,1 C -2,2 C 75 % 1031,5 hPa 0,0 l/m 0 min 0 min 0 W/m 6,4 km/h (2 Bft) 95,74 %
28.02.2022 04:02 2,3 C 1,1 C -2,2 C 75 % 1031,6 hPa 0,0 l/m 0 min 0 min 0 W/m 3,2 km/h (1 Bft) 100,00 %
28.02.2022 04:04 2,3 C 1,1 C -2,2 C 76 % 1031,5 hPa 0,0 l/m 0 min 0 min 0 W/m 6,4 km/h (2 Bft) 95,74 %
28.02.2022 04:06 2,2 C 1,1 C -2,2 C 76 % 1031,5 hPa 0,0 l/m 0 min 0 min 0 W/m 6,4 km/h (2 Bft) 93,62 %
28.02.2022 04:08 2,2 C 1,1 C -2,2 C 76 % 1031,5 hPa 0,0 l/m 0 min 0 min 0 W/m 6,4 km/h (2 Bft) 95,74 %
28.02.2022 04:10 2,2 C 1,1 C -2,2 C 76 % 1031,5 hPa 0,0 l/m 0 min 0 min 0 W/m 6,4 km/h (2 Bft) 93,48 %
28.02.2022 04:12 2,2 C 1,1 C -2,2 C 76 % 1031,5 hPa 0,0 l/m 0 min 0 min 0 W/m 12,9 km/h (3 Bft) 95,74 %
28.02.2022 04:14 2,1 C 1,1 C -2,2 C 76 % 1031,5 hPa 0,0 l/m 0 min 0 min 0 W/m 9,7 km/h (2 Bft) 97,87 %
28.02.2022 04:16 2,1 C 1,1 C -2,2 C 76 % 1031,4 hPa 0,0 l/m 0 min 0 min 0 W/m 12,9 km/h (3 Bft) 95,74 %
28.02.2022 04:18 2,1 C 1,1 C -2,2 C 76 % 1031,5 hPa 0,0 l/m 0 min 0 min 0 W/m 12,9 km/h (3 Bft) 95,74 %
28.02.2022 04:20 2,1 C 1,1 C -2,2 C 76 % 1031,5 hPa 0,0 l/m 0 min 0 min 0 W/m 12,9 km/h (3 Bft) 97,87 %
28.02.2022 04:22 2,1 C 1,1 C -2,2 C 76 % 1031,5 hPa 0,0 l/m 0 min 0 min 0 W/m 6,4 km/h (2 Bft) 95,65 %
28.02.2022 04:24 2,0 C 1,1 C -2,2 C 76 % 1031,5 hPa 0,0 l/m 0 min 0 min 0 W/m 6,4 km/h (2 Bft) 97,87 %
28.02.2022 04:26 2,0 C 0,6 C -2,2 C 76 % 1031,5 hPa 0,0 l/m 0 min 0 min 0 W/m 6,4 km/h (2 Bft) 97,87 %
28.02.2022 04:28 1,9 C 0,6 C -2,2 C 77 % 1031,4 hPa 0,0 l/m 0 min 0 min 0 W/m 12,9 km/h (3 Bft) 97,87 %
28.02.2022 04:30 1,9 C 0,6 C -2,2 C 77 % 1031,5 hPa 0,0 l/m 0 min 0 min 0 W/m 6,4 km/h (2 Bft) 97,87 %
28.02.2022 04:32 1,9 C 0,6 C -2,8 C 77 % 1031,5 hPa 0,0 l/m 0 min 0 min 0 W/m 6,4 km/h (2 Bft) 95,74 %
28.02.2022 04:34 1,8 C 0,6 C -2,2 C 77 % 1031,5 hPa 0,0 l/m 0 min 0 min 0 W/m 12,9 km/h (3 Bft) 97,83 %
28.02.2022 04:36 1,8 C 0,6 C -2,2 C 77 % 1031,5 hPa 0,0 l/m 0 min 0 min 0 W/m 12,9 km/h (3 Bft) 97,87 %
28.02.2022 04:38 1,8 C 0,6 C -2,2 C 77 % 1031,5 hPa 0,0 l/m 0 min 0 min 0 W/m 6,4 km/h (2 Bft) 95,74 %
28.02.2022 04:40 1,8 C 0,6 C -2,8 C 77 % 1031,5 hPa 0,0 l/m 0 min 0 min 0 W/m 6,4 km/h (2 Bft) 97,87 %
28.02.2022 04:42 1,8 C 0,6 C -2,8 C 77 % 1031,6 hPa 0,0 l/m 0 min 0 min 0 W/m 6,4 km/h (2 Bft) 97,87 %
28.02.2022 04:44 1,7 C 0,6 C -2,8 C 77 % 1031,5 hPa 0,0 l/m 0 min 0 min 0 W/m 12,9 km/h (3 Bft) 97,87 %
28.02.2022 04:46 1,7 C 0,6 C -2,8 C 77 % 1031,5 hPa 0,0 l/m 0 min 0 min 0 W/m 12,9 km/h (3 Bft) 97,83 %
28.02.2022 04:48 1,7 C 0,6 C -2,8 C 77 % 1031,5 hPa 0,0 l/m 0 min 0 min 0 W/m 12,9 km/h (3 Bft) 97,87 %
28.02.2022 04:50 1,7 C 0,6 C -2,8 C 77 % 1031,5 hPa 0,0 l/m 0 min 0 min 0 W/m 12,9 km/h (3 Bft) 95,74 %
28.02.2022 04:52 1,6 C 0,6 C -2,8 C 77 % 1031,5 hPa 0,0 l/m 0 min 0 min 0 W/m 12,9 km/h (3 Bft) 95,74 %
28.02.2022 04:54 1,6 C 0,6 C -2,8 C 78 % 1031,6 hPa 0,0 l/m 0 min 0 min 0 W/m 9,7 km/h (2 Bft) 93,62 %
28.02.2022 04:56 1,6 C 0,6 C -2,8 C 78 % 1031,6 hPa 0,0 l/m 0 min 0 min 0 W/m 6,4 km/h (2 Bft) 97,87 %
28.02.2022 04:58 1,6 C 0,6 C -2,8 C 78 % 1031,6 hPa 0,0 l/m 0 min 0 min 0 W/m 6,4 km/h (2 Bft) 97,83 %
28.02.2022 05:00 1,5 C 0,6 C -2,8 C 78 % 1031,6 hPa 0,0 l/m 0 min 0 min 0 W/m 12,9 km/h (3 Bft) 95,74 %
28.02.2022 05:02 1,5 C 0,6 C -2,8 C 78 % 1031,6 hPa 0,0 l/m 0 min 0 min 0 W/m 6,4 km/h (2 Bft) 95,74 %
28.02.2022 05:04 1,5 C 0,6 C -2,8 C 78 % 1031,6 hPa 0,0 l/m 0 min 0 min 0 W/m 9,7 km/h (2 Bft) 97,87 %
28.02.2022 05:06 1,4 C 0,6 C -2,8 C 78 % 1031,7 hPa 0,0 l/m 0 min 0 min 0 W/m 3,2 km/h (1 Bft) 95,74 %
28.02.2022 05:08 1,4 C 0,6 C -2,8 C 78 % 1031,6 hPa 0,0 l/m 0 min 0 min 0 W/m 3,2 km/h (1 Bft) 54,35 %
28.02.2022 05:10 1,4 C 0,0 C -2,8 C 78 % 1031,6 hPa 0,0 l/m 0 min 0 min 0 W/m 3,2 km/h (1 Bft) 97,73 %
28.02.2022 05:12 1,4 C 0,0 C -2,8 C 78 % 1031,6 hPa 0,0 l/m 0 min 0 min 0 W/m 6,4 km/h (2 Bft) 97,87 %
28.02.2022 05:14 1,4 C 0,0 C -3,3 C 78 % 1031,6 hPa 0,0 l/m 0 min 0 min 0 W/m 3,2 km/h (1 Bft) 97,87 %
28.02.2022 05:16 1,3 C 0,0 C -3,3 C 78 % 1031,6 hPa 0,0 l/m 0 min 0 min 0 W/m 6,4 km/h (2 Bft) 93,62 %
28.02.2022 05:18 1,3 C 0,0 C -3,3 C 78 % 1031,6 hPa 0,0 l/m 0 min 0 min 0 W/m 6,4 km/h (2 Bft) 100,00 %
28.02.2022 05:20 1,3 C 0,0 C -2,8 C 79 % 1031,6 hPa 0,0 l/m 0 min 0 min 0 W/m 6,4 km/h (2 Bft) 100,00 %
28.02.2022 05:22 1,3 C 0,0 C -3,3 C 79 % 1031,6 hPa 0,0 l/m 0 min 0 min 0 W/m 3,2 km/h (1 Bft) 100,00 %
28.02.2022 05:24 1,2 C 0,0 C -3,3 C 79 % 1031,6 hPa 0,0 l/m 0 min 0 min 0 W/m 6,4 km/h (2 Bft) 100,00 %
28.02.2022 05:26 1,2 C 0,0 C -3,3 C 78 % 1031,6 hPa 0,0 l/m 0 min 0 min 0 W/m 3,2 km/h (1 Bft) 100,00 %
28.02.2022 05:28 1,2 C 0,0 C -3,3 C 79 % 1031,6 hPa 0,0 l/m 0 min 0 min 0 W/m 6,4 km/h (2 Bft) 100,00 %
28.02.2022 05:30 1,2 C 0,0 C -3,3 C 79 % 1031,5 hPa 0,0 l/m 0 min 0 min 0 W/m 6,4 km/h (2 Bft) 100,00 %
28.02.2022 05:32 1,1 C 0,0 C -3,3 C 79 % 1031,5 hPa 0,0 l/m 0 min 0 min 0 W/m 6,4 km/h (2 Bft) 100,00 %
28.02.2022 05:34 1,1 C 0,0 C -3,3 C 79 % 1031,4 hPa 0,0 l/m 0 min 0 min 0 W/m 6,4 km/h (2 Bft) 100,00 %
28.02.2022 05:36 1,1 C 0,0 C -3,3 C 79 % 1031,4 hPa 0,0 l/m 0 min 0 min 0 W/m 6,4 km/h (2 Bft) 100,00 %
28.02.2022 05:38 1,1 C 0,0 C -3,3 C 79 % 1031,4 hPa 0,0 l/m 0 min 0 min 0 W/m 9,7 km/h (2 Bft) 100,00 %
28.02.2022 05:40 1,1 C 0,0 C -3,3 C 79 % 1031,4 hPa 0,0 l/m 0 min 0 min 0 W/m 6,4 km/h (2 Bft) 97,87 %
28.02.2022 05:42 1,1 C 0,0 C -3,3 C 79 % 1031,4 hPa 0,0 l/m 0 min 0 min 0 W/m 6,4 km/h (2 Bft) 97,87 %
28.02.2022 05:44 1,0 C 0,0 C -3,3 C 79 % 1031,4 hPa 0,0 l/m 0 min 0 min 0 W/m 6,4 km/h (2 Bft) 100,00 %
28.02.2022 05:46 1,0 C 0,0 C -3,3 C 79 % 1031,4 hPa 0,0 l/m 0 min 0 min 0 W/m 6,4 km/h (2 Bft) 100,00 %
28.02.2022 05:48 1,0 C 0,0 C -3,3 C 79 % 1031,4 hPa 0,0 l/m 0 min 0 min 0 W/m 12,9 km/h (3 Bft) 97,87 %
28.02.2022 05:50 0,9 C 0,0 C -3,3 C 80 % 1031,3 hPa 0,0 l/m 0 min 0 min 0 W/m 12,9 km/h (3 Bft) 100,00 %
28.02.2022 05:52 0,9 C 0,0 C -3,3 C 80 % 1031,3 hPa 0,0 l/m 0 min 0 min 0 W/m 6,4 km/h (2 Bft) 48,78 %
28.02.2022 05:54 0,9 C 0,0 C -3,3 C 80 % 1031,3 hPa 0,0 l/m 0 min 0 min 0 W/m 12,9 km/h (3 Bft) 97,87 %
28.02.2022 05:56 0,9 C 0,0 C -3,3 C 80 % 1031,3 hPa 0,0 l/m 0 min 0 min 0 W/m 6,4 km/h (2 Bft) 97,83 %
28.02.2022 05:58 0,9 C 0,0 C -3,3 C 80 % 1031,4 hPa 0,0 l/m 0 min 0 min 0 W/m 12,9 km/h (3 Bft) 97,87 %
28.02.2022 06:00 0,9 C 0,0 C -3,3 C 80 % 1031,3 hPa 0,0 l/m 0 min 0 min 0 W/m 6,4 km/h (2 Bft) 97,87 %
28.02.2022 06:02 0,9 C 0,0 C -3,3 C 80 % 1031,4 hPa 0,0 l/m 0 min 0 min 0 W/m 12,9 km/h (3 Bft) 97,87 %
28.02.2022 06:04 0,9 C 0,0 C -3,3 C 80 % 1031,3 hPa 0,0 l/m 0 min 0 min 0 W/m 6,4 km/h (2 Bft) 95,74 %
28.02.2022 06:06 0,9 C 0,0 C -3,3 C 80 % 1031,4 hPa 0,0 l/m 0 min 0 min 0 W/m 9,7 km/h (2 Bft) 95,65 %
28.02.2022 06:08 0,9 C 0,0 C -3,3 C 80 % 1031,4 hPa 0,0 l/m 0 min 0 min 0 W/m 12,9 km/h (3 Bft) 97,87 %
28.02.2022 06:10 0,9 C 0,0 C -2,8 C 80 % 1031,4 hPa 0,0 l/m 0 min 0 min 0 W/m 6,4 km/h (2 Bft) 97,87 %
28.02.2022 06:12 0,9 C 0,0 C -2,8 C 80 % 1031,4 hPa 0,0 l/m 0 min 0 min 0 W/m 6,4 km/h (2 Bft) 95,74 %
28.02.2022 06:14 0,9 C 0,0 C -2,8 C 80 % 1031,3 hPa 0,0 l/m 0 min 0 min 0 W/m 12,9 km/h (3 Bft) 97,87 %
28.02.2022 06:16 0,9 C 0,0 C -2,8 C 80 % 1031,4 hPa 0,0 l/m 0 min 0 min 0 W/m 9,7 km/h (2 Bft) 97,87 %
28.02.2022 06:18 0,9 C 0,6 C -2,8 C 80 % 1031,4 hPa 0,0 l/m 0 min 0 min 0 W/m 12,9 km/h (3 Bft) 97,83 %
28.02.2022 06:20 0,9 C 0,6 C -2,8 C 80 % 1031,4 hPa 0,0 l/m 0 min 0 min 0 W/m 19,3 km/h (3 Bft) 97,87 %
28.02.2022 06:22 0,9 C 0,6 C -2,8 C 80 % 1031,4 hPa 0,0 l/m 0 min 0 min 0 W/m 6,4 km/h (2 Bft) 97,87 %
28.02.2022 06:24 0,9 C 0,0 C -2,8 C 80 % 1031,4 hPa 0,0 l/m 0 min 0 min 0 W/m 12,9 km/h (3 Bft) 97,87 %
28.02.2022 06:26 0,9 C 0,0 C -2,8 C 80 % 1031,4 hPa 0,0 l/m 0 min 0 min 0 W/m 9,7 km/h (2 Bft) 95,74 %
28.02.2022 06:28 0,9 C 0,0 C -2,8 C 80 % 1031,3 hPa 0,0 l/m 0 min 0 min 0 W/m 6,4 km/h (2 Bft) 97,87 %
28.02.2022 06:30 0,9 C 0,0 C -2,8 C 80 % 1031,3 hPa 0,0 l/m 0 min 0 min 0 W/m 6,4 km/h (2 Bft) 97,83 %
28.02.2022 06:32 0,9 C 0,0 C -2,8 C 80 % 1031,3 hPa 0,0 l/m 0 min 0 min 0 W/m 6,4 km/h (2 Bft) 100,00 %
28.02.2022 06:34 0,9 C 0,0 C -2,8 C 80 % 1031,3 hPa 0,0 l/m 0 min 0 min 0 W/m 6,4 km/h (2 Bft) 97,87 %
28.02.2022 06:36 0,9 C 0,0 C -3,3 C 80 % 1031,3 hPa 0,0 l/m 0 min 0 min 0 W/m 12,9 km/h (3 Bft) 97,87 %
28.02.2022 06:38 0,9 C 0,0 C -3,3 C 80 % 1031,3 hPa 0,0 l/m 0 min 0 min 0 W/m 6,4 km/h (2 Bft) 93,62 %
28.02.2022 06:40 0,9 C 0,0 C -3,3 C 80 % 1031,2 hPa 0,0 l/m 0 min 0 min 0 W/m 3,2 km/h (1 Bft) 100,00 %
28.02.2022 06:42 0,9 C 0,0 C -3,3 C 80 % 1031,3 hPa 0,0 l/m 0 min 0 min 0 W/m 6,4 km/h (2 Bft) 100,00 %
28.02.2022 06:44 0,9 C 0,0 C -3,3 C 80 % 1031,3 hPa 0,0 l/m 0 min 0 min 0 W/m 6,4 km/h (2 Bft) 95,65 %
28.02.2022 06:46 0,9 C 0,0 C -3,3 C 80 % 1031,3 hPa 0,0 l/m 0 min 0 min 0 W/m 12,9 km/h (3 Bft) 97,87 %
28.02.2022 06:48 0,9 C 0,0 C -3,3 C 80 % 1031,3 hPa 0,0 l/m 0 min 0 min 0 W/m 6,4 km/h (2 Bft) 97,87 %
28.02.2022 06:50 0,9 C 0,0 C -3,3 C 80 % 1031,2 hPa 0,0 l/m 0 min 0 min 0 W/m 6,4 km/h (2 Bft) 97,87 %
28.02.2022 06:52 0,9 C 0,0 C -3,3 C 80 % 1031,2 hPa 0,0 l/m 0 min 0 min 0 W/m 12,9 km/h (3 Bft) 97,87 %
28.02.2022 06:54 0,8 C 0,0 C -3,3 C 80 % 1031,3 hPa 0,0 l/m 0 min 0 min 0 W/m 9,7 km/h (2 Bft) 97,87 %
28.02.2022 06:56 0,8 C 0,0 C -3,3 C 80 % 1031,3 hPa 0,0 l/m 0 min 0 min 0 W/m 6,4 km/h (2 Bft) 95,65 %
28.02.2022 06:58 0,8 C 0,0 C -3,3 C 80 % 1031,3 hPa 0,0 l/m 0 min 0 min 0 W/m 6,4 km/h (2 Bft) 96,00 %
28.02.2022 07:00 0,8 C 0,0 C -3,3 C 80 % 1031,3 hPa 0,0 l/m 0 min 0 min 0 W/m 12,9 km/h (3 Bft) 97,87 %
28.02.2022 07:02 0,8 C 0,0 C -3,3 C 80 % 1031,3 hPa 0,0 l/m 0 min 0 min 0 W/m 12,9 km/h (3 Bft) 97,96 %
28.02.2022 07:04 0,8 C 0,0 C -3,3 C 80 % 1031,3 hPa 0,0 l/m 0 min 0 min 0 W/m 12,9 km/h (3 Bft) 100,00 %
28.02.2022 07:06 0,8 C 0,0 C -3,3 C 80 % 1031,3 hPa 0,0 l/m 0 min 0 min 0 W/m 12,9 km/h (3 Bft) 97,87 %
28.02.2022 07:08 0,8 C 0,0 C -3,3 C 80 % 1031,4 hPa 0,0 l/m 0 min 0 min 0 W/m 16,1 km/h (3 Bft) 97,87 %
28.02.2022 07:10 0,8 C 0,0 C -3,3 C 80 % 1031,3 hPa 0,0 l/m 0 min 0 min 0 W/m 12,9 km/h (3 Bft) 100,00 %
28.02.2022 07:12 0,8 C 0,0 C -3,3 C 80 % 1031,3 hPa 0,0 l/m 0 min 0 min 0 W/m 12,9 km/h (3 Bft) 100,00 %
28.02.2022 07:14 0,8 C 0,0 C -3,3 C 80 % 1031,4 hPa 0,0 l/m 0 min 0 min 0 W/m 16,1 km/h (3 Bft) 100,00 %
28.02.2022 07:16 0,8 C 0,0 C -3,3 C 80 % 1031,3 hPa 0,0 l/m 0 min 0 min 0 W/m 6,4 km/h (2 Bft) 100,00 %
28.02.2022 07:18 0,8 C 0,0 C -3,3 C 80 % 1031,4 hPa 0,0 l/m 0 min 0 min 0 W/m 9,7 km/h (2 Bft) 97,87 %
28.02.2022 07:20 0,8 C 0,0 C -3,3 C 80 % 1031,4 hPa 0,0 l/m 0 min 0 min 0 W/m 12,9 km/h (3 Bft) 95,74 %
28.02.2022 07:22 0,8 C 0,0 C -3,3 C 80 % 1031,5 hPa 0,0 l/m 0 min 0 min 4 W/m 12,9 km/h (3 Bft) 97,87 %
28.02.2022 07:24 0,8 C 0,0 C -3,3 C 80 % 1031,4 hPa 0,0 l/m 0 min 0 min 5 W/m 12,9 km/h (3 Bft) 97,83 %
28.02.2022 07:26 0,8 C 0,0 C -3,3 C 80 % 1031,4 hPa 0,0 l/m 0 min 0 min 5 W/m 9,7 km/h (2 Bft) 97,87 %
28.02.2022 07:28 0,8 C 0,0 C -3,3 C 80 % 1031,4 hPa 0,0 l/m 0 min 0 min 7 W/m 12,9 km/h (3 Bft) 97,87 %
28.02.2022 07:30 0,8 C 0,0 C -3,3 C 81 % 1031,5 hPa 0,0 l/m 0 min 0 min 7 W/m 9,7 km/h (2 Bft) 95,74 %
28.02.2022 07:32 0,8 C 0,0 C -3,3 C 81 % 1031,5 hPa 0,0 l/m 0 min 0 min 8 W/m 6,4 km/h (2 Bft) 95,83 %
28.02.2022 07:34 0,8 C 0,0 C -3,3 C 81 % 1031,5 hPa 0,0 l/m 0 min 0 min 9 W/m 6,4 km/h (2 Bft) 95,74 %
28.02.2022 07:36 0,8 C 0,0 C -3,3 C 81 % 1031,6 hPa 0,0 l/m 0 min 0 min 10 W/m 12,9 km/h (3 Bft) 97,83 %
28.02.2022 07:38 0,7 C 0,0 C -3,3 C 81 % 1031,6 hPa 0,0 l/m 0 min 0 min 11 W/m 12,9 km/h (3 Bft) 97,87 %
28.02.2022 07:40 0,8 C 0,0 C -3,3 C 81 % 1031,6 hPa 0,0 l/m 0 min 0 min 11 W/m 12,9 km/h (3 Bft) 97,87 %
28.02.2022 07:42 0,8 C 0,0 C -3,3 C 81 % 1031,6 hPa 0,0 l/m 0 min 0 min 12 W/m 12,9 km/h (3 Bft) 95,74 %
28.02.2022 07:44 0,8 C 0,0 C -3,3 C 81 % 1031,7 hPa 0,0 l/m 0 min 0 min 12 W/m 6,4 km/h (2 Bft) 97,87 %
28.02.2022 07:46 0,8 C 0,0 C -3,3 C 81 % 1031,6 hPa 0,0 l/m 0 min 0 min 13 W/m 6,4 km/h (2 Bft) 97,87 %
28.02.2022 07:48 0,8 C 0,0 C -3,3 C 81 % 1031,7 hPa 0,0 l/m 0 min 0 min 14 W/m 9,7 km/h (2 Bft) 97,83 %
28.02.2022 07:50 0,8 C 0,0 C -3,3 C 81 % 1031,7 hPa 0,0 l/m 0 min 0 min 14 W/m 3,2 km/h (1 Bft) 95,74 %
28.02.2022 07:52 0,8 C 0,0 C -3,3 C 81 % 1031,6 hPa 0,0 l/m 0 min 0 min 16 W/m 6,4 km/h (2 Bft) 93,62 %
28.02.2022 07:54 0,8 C 0,0 C -3,3 C 81 % 1031,7 hPa 0,0 l/m 0 min 0 min 16 W/m 6,4 km/h (2 Bft) 95,74 %
28.02.2022 07:56 0,8 C 0,0 C -3,3 C 81 % 1031,7 hPa 0,0 l/m 0 min 0 min 16 W/m 16,1 km/h (3 Bft) 97,87 %
28.02.2022 07:58 0,8 C 0,0 C -3,3 C 81 % 1031,7 hPa 0,0 l/m 0 min 0 min 18 W/m 6,4 km/h (2 Bft) 95,65 %
28.02.2022 08:00 0,8 C 0,0 C -3,3 C 81 % 1031,7 hPa 0,0 l/m 0 min 0 min 18 W/m 6,4 km/h (2 Bft) 95,74 %
28.02.2022 08:02 0,8 C 0,0 C -3,3 C 81 % 1031,7 hPa 0,0 l/m 0 min 0 min 18 W/m 16,1 km/h (3 Bft) 95,45 %
28.02.2022 08:04 0,8 C 0,6 C -3,3 C 81 % 1031,7 hPa 0,0 l/m 0 min 0 min 19 W/m 12,9 km/h (3 Bft) 97,87 %
28.02.2022 08:06 0,8 C 0,6 C -2,8 C 81 % 1031,6 hPa 0,0 l/m 0 min 0 min 19 W/m 12,9 km/h (3 Bft) 95,74 %
28.02.2022 08:08 0,8 C 0,6 C -2,8 C 81 % 1031,6 hPa 0,0 l/m 0 min 0 min 19 W/m 16,1 km/h (3 Bft) 97,83 %
28.02.2022 08:10 0,8 C 0,6 C -2,8 C 81 % 1031,5 hPa 0,0 l/m 0 min 0 min 21 W/m 12,9 km/h (3 Bft) 93,62 %
28.02.2022 08:12 0,8 C 0,6 C -2,8 C 81 % 1031,5 hPa 0,0 l/m 0 min 0 min 21 W/m 16,1 km/h (3 Bft) 95,74 %
28.02.2022 08:14 0,9 C 0,6 C -2,8 C 81 % 1031,5 hPa 0,0 l/m 0 min 0 min 21 W/m 16,1 km/h (3 Bft) 97,87 %
28.02.2022 08:16 0,9 C 0,6 C -2,8 C 81 % 1031,5 hPa 0,0 l/m 0 min 0 min 22 W/m 16,1 km/h (3 Bft) 95,65 %
28.02.2022 08:18 0,9 C 0,6 C -2,8 C 81 % 1031,5 hPa 0,0 l/m 0 min 0 min 23 W/m 9,7 km/h (2 Bft) 95,74 %
28.02.2022 08:20 1,0 C 0,6 C -2,8 C 81 % 1031,5 hPa 0,0 l/m 0 min 0 min 23 W/m 6,4 km/h (2 Bft) 95,74 %
28.02.2022 08:22 1,1 C 0,6 C -2,8 C 81 % 1031,5 hPa 0,0 l/m 0 min 0 min 23 W/m 12,9 km/h (3 Bft) 95,74 %
28.02.2022 08:24 1,1 C 0,6 C -2,8 C 81 % 1031,5 hPa 0,0 l/m 0 min 0 min 25 W/m 19,3 km/h (3 Bft) 95,74 %
28.02.2022 08:26 1,2 C 1,1 C -2,8 C 81 % 1031,4 hPa 0,0 l/m 0 min 0 min 25 W/m 16,1 km/h (3 Bft) 95,74 %
28.02.2022 08:28 1,2 C 1,1 C -2,8 C 80 % 1031,5 hPa 0,0 l/m 0 min 0 min 25 W/m 12,9 km/h (3 Bft) 95,65 %
28.02.2022 08:30 1,3 C 1,1 C -2,2 C 80 % 1031,5 hPa 0,0 l/m 0 min 0 min 25 W/m 16,1 km/h (3 Bft) 95,74 %
28.02.2022 08:32 1,3 C 1,1 C -2,2 C 80 % 1031,5 hPa 0,0 l/m 0 min 0 min 26 W/m 16,1 km/h (3 Bft) 93,62 %
28.02.2022 08:34 1,4 C 1,1 C -2,2 C 80 % 1031,5 hPa 0,0 l/m 0 min 0 min 26 W/m 16,1 km/h (3 Bft) 95,74 %
28.02.2022 08:36 1,5 C 1,7 C -2,2 C 80 % 1031,5 hPa 0,0 l/m 0 min 0 min 26 W/m 16,1 km/h (3 Bft) 95,74 %
28.02.2022 08:38 1,6 C 1,7 C -2,2 C 80 % 1031,5 hPa 0,0 l/m 0 min 0 min 26 W/m 12,9 km/h (3 Bft) 95,74 %
28.02.2022 08:40 1,6 C 1,7 C -2,2 C 80 % 1031,5 hPa 0,0 l/m 0 min 0 min 27 W/m 19,3 km/h (3 Bft) 95,65 %
28.02.2022 08:42 1,7 C 1,7 C -2,2 C 79 % 1031,5 hPa 0,0 l/m 0 min 0 min 28 W/m 16,1 km/h (3 Bft) 95,74 %
28.02.2022 08:44 1,8 C 1,7 C -2,2 C 79 % 1031,5 hPa 0,0 l/m 0 min 0 min 28 W/m 12,9 km/h (3 Bft) 95,74 %
28.02.2022 08:46 1,9 C 1,7 C -1,7 C 79 % 1031,5 hPa 0,0 l/m 0 min 0 min 30 W/m 12,9 km/h (3 Bft) 95,74 %
28.02.2022 08:48 1,9 C 2,2 C -1,7 C 79 % 1031,6 hPa 0,0 l/m 2 min 0 min 141 W/m 19,3 km/h (3 Bft) 95,74 %
28.02.2022 08:50 2,0 C 2,2 C -1,7 C 78 % 1031,6 hPa 0,0 l/m 2 min 0 min 202 W/m 19,3 km/h (3 Bft) 95,74 %
28.02.2022 08:52 2,1 C 2,2 C -1,7 C 79 % 1031,6 hPa 0,0 l/m 2 min 0 min 214 W/m 12,9 km/h (3 Bft) 97,83 %
28.02.2022 08:54 2,2 C 2,8 C -1,7 C 78 % 1031,6 hPa 0,0 l/m 2 min 0 min 194 W/m 12,9 km/h (3 Bft) 97,87 %
28.02.2022 08:56 2,3 C 3,3 C -1,7 C 78 % 1031,6 hPa 0,0 l/m 2 min 0 min 173 W/m 19,3 km/h (3 Bft) 100,00 %
28.02.2022 08:58 2,4 C 4,4 C -1,7 C 78 % 1031,6 hPa 0,0 l/m 2 min 0 min 150 W/m 25,7 km/h (4 Bft) 97,87 %
28.02.2022 09:00 2,6 C 5,0 C -1,7 C 77 % 1031,6 hPa 0,0 l/m 2 min 0 min 136 W/m 16,1 km/h (3 Bft) 100,00 %
28.02.2022 09:02 2,7 C 5,6 C -1,1 C 77 % 1031,5 hPa 0,0 l/m 0 min 0 min 114 W/m 19,3 km/h (3 Bft) 100,00 %
28.02.2022 09:04 2,8 C 5,6 C -1,1 C 76 % 1031,5 hPa 0,0 l/m 0 min 0 min 83 W/m 22,5 km/h (4 Bft) 100,00 %
28.02.2022 09:06 2,9 C 5,6 C -1,1 C 76 % 1031,5 hPa 0,0 l/m 0 min 0 min 88 W/m 29,0 km/h (5 Bft) 100,00 %
28.02.2022 09:08 3,1 C 5,6 C -1,1 C 76 % 1031,5 hPa 0,0 l/m 0 min 0 min 122 W/m 16,1 km/h (3 Bft) 100,00 %
28.02.2022 09:10 3,2 C 5,0 C -1,1 C 75 % 1031,6 hPa 0,0 l/m 2 min 0 min 150 W/m 19,3 km/h (3 Bft) 100,00 %
28.02.2022 09:12 3,2 C 4,4 C -1,1 C 75 % 1031,6 hPa 0,0 l/m 2 min 0 min 150 W/m 25,7 km/h (4 Bft) 100,00 %
28.02.2022 09:14 3,3 C 4,4 C -0,6 C 74 % 1031,6 hPa 0,0 l/m 2 min 0 min 156 W/m 22,5 km/h (4 Bft) 97,83 %
28.02.2022 09:16 3,4 C 5,0 C -0,6 C 74 % 1031,7 hPa 0,0 l/m 2 min 0 min 180 W/m 22,5 km/h (4 Bft) 100,00 %
28.02.2022 09:18 3,5 C 5,0 C -0,6 C 74 % 1031,7 hPa 0,0 l/m 2 min 0 min 212 W/m 16,1 km/h (3 Bft) 100,00 %
28.02.2022 09:20 3,6 C 5,0 C -0,6 C 73 % 1031,7 hPa 0,0 l/m 2 min 0 min 270 W/m 19,3 km/h (3 Bft) 97,87 %
28.02.2022 09:22 3,7 C 5,6 C -0,6 C 73 % 1031,7 hPa 0,0 l/m 2 min 0 min 277 W/m 22,5 km/h (4 Bft) 100,00 %
28.02.2022 09:24 3,7 C 5,6 C -0,6 C 72 % 1031,8 hPa 0,0 l/m 0 min 0 min 128 W/m 22,5 km/h (4 Bft) 100,00 %
28.02.2022 09:26 3,8 C 5,6 C -0,6 C 72 % 1031,7 hPa 0,0 l/m 2 min 0 min 224 W/m 19,3 km/h (3 Bft) 100,00 %
28.02.2022 09:28 3,8 C 5,6 C -0,6 C 72 % 1031,6 hPa 0,0 l/m 2 min 0 min 229 W/m 22,5 km/h (4 Bft) 97,87 %
28.02.2022 09:30 3,9 C 5,6 C -0,6 C 72 % 1031,6 hPa 0,0 l/m 0 min 0 min 144 W/m 22,5 km/h (4 Bft) 100,00 %
28.02.2022 09:32 4,0 C 5,0 C 0,0 C 72 % 1031,7 hPa 0,0 l/m 2 min 0 min 242 W/m 22,5 km/h (4 Bft) 100,00 %
28.02.2022 09:34 4,1 C 5,0 C 0,0 C 71 % 1031,8 hPa 0,0 l/m 2 min 0 min 312 W/m 22,5 km/h (4 Bft) 100,00 %
28.02.2022 09:36 4,1 C 5,0 C 0,0 C 71 % 1031,8 hPa 0,0 l/m 2 min 0 min 244 W/m 19,3 km/h (3 Bft) 97,87 %
28.02.2022 09:38 4,2 C 5,0 C 0,0 C 71 % 1031,8 hPa 0,0 l/m 0 min 0 min 127 W/m 25,7 km/h (4 Bft) 100,00 %
28.02.2022 09:40 4,2 C 5,0 C 0,0 C 70 % 1031,8 hPa 0,0 l/m 0 min 0 min 131 W/m 19,3 km/h (3 Bft) 100,00 %
28.02.2022 09:42 4,3 C 5,0 C 0,0 C 70 % 1031,7 hPa 0,0 l/m 0 min 0 min 158 W/m 19,3 km/h (3 Bft) 100,00 %
28.02.2022 09:44 4,3 C 5,0 C 0,0 C 70 % 1031,7 hPa 0,0 l/m 0 min 0 min 97 W/m 22,5 km/h (4 Bft) 100,00 %
28.02.2022 09:46 4,4 C 5,0 C 0,0 C 70 % 1031,7 hPa 0,0 l/m 0 min 0 min 50 W/m 22,5 km/h (4 Bft) 100,00 %
28.02.2022 09:48 4,5 C 5,0 C 0,0 C 69 % 1031,8 hPa 0,0 l/m 0 min 0 min 54 W/m 38,6 km/h (5 Bft) 97,83 %
28.02.2022 09:50 4,6 C 5,0 C 0,6 C 69 % 1031,7 hPa 0,0 l/m 0 min 0 min 117 W/m 22,5 km/h (4 Bft) 100,00 %
28.02.2022 09:52 4,6 C 5,0 C 0,6 C 69 % 1031,8 hPa 0,0 l/m 2 min 0 min 338 W/m 29,0 km/h (5 Bft) 100,00 %
28.02.2022 09:54 4,7 C 5,6 C 0,6 C 69 % 1031,8 hPa 0,0 l/m 2 min 0 min 257 W/m 29,0 km/h (5 Bft) 100,00 %
28.02.2022 09:56 4,7 C 5,6 C 0,6 C 69 % 1031,8 hPa 0,0 l/m 2 min 0 min 244 W/m 22,5 km/h (4 Bft) 97,87 %
28.02.2022 09:58 4,8 C 6,1 C 0,6 C 68 % 1031,8 hPa 0,0 l/m 2 min 0 min 269 W/m 25,7 km/h (4 Bft) 100,00 %
28.02.2022 10:00 4,9 C 6,7 C 0,6 C 68 % 1031,8 hPa 0,0 l/m 2 min 0 min 243 W/m 19,3 km/h (3 Bft) 100,00 %
28.02.2022 10:02 5,0 C 6,7 C 0,6 C 68 % 1031,9 hPa 0,0 l/m 2 min 0 min 328 W/m 22,5 km/h (4 Bft) 97,87 %
28.02.2022 10:04 5,1 C 6,1 C 1,1 C 68 % 1031,9 hPa 0,0 l/m 2 min 0 min 307 W/m 32,2 km/h (5 Bft) 100,00 %
28.02.2022 10:06 5,1 C 6,7 C 1,1 C 67 % 1031,8 hPa 0,0 l/m 0 min 0 min 142 W/m 19,3 km/h (3 Bft) 100,00 %
28.02.2022 10:08 5,2 C 7,2 C 1,1 C 67 % 1031,8 hPa 0,0 l/m 2 min 0 min 255 W/m 19,3 km/h (3 Bft) 100,00 %
28.02.2022 10:10 5,2 C 7,8 C 1,1 C 67 % 1031,8 hPa 0,0 l/m 0 min 0 min 94 W/m 16,1 km/h (3 Bft) 97,87 %
28.02.2022 10:12 5,3 C 8,9 C 1,1 C 67 % 1031,8 hPa 0,0 l/m 0 min 0 min 117 W/m 19,3 km/h (3 Bft) 97,83 %
28.02.2022 10:14 5,4 C 8,3 C 1,1 C 66 % 1031,8 hPa 0,0 l/m 0 min 0 min 155 W/m 29,0 km/h (5 Bft) 95,74 %
28.02.2022 10:16 5,5 C 8,9 C 1,1 C 66 % 1031,8 hPa 0,0 l/m 2 min 0 min 261 W/m 22,5 km/h (4 Bft) 97,87 %
28.02.2022 10:18 5,6 C 9,4 C 1,7 C 66 % 1031,8 hPa 0,0 l/m 2 min 0 min 393 W/m 22,5 km/h (4 Bft) 95,74 %
28.02.2022 10:20 5,7 C 10,0 C 1,7 C 66 % 1031,8 hPa 0,0 l/m 2 min 0 min 417 W/m 19,3 km/h (3 Bft) 95,74 %
28.02.2022 10:22 5,7 C 10,0 C 1,7 C 66 % 1031,8 hPa 0,0 l/m 2 min 0 min 421 W/m 22,5 km/h (4 Bft) 95,74 %
28.02.2022 10:24 5,8 C 10,6 C 1,7 C 65 % 1031,8 hPa 0,0 l/m 2 min 0 min 416 W/m 22,5 km/h (4 Bft) 95,65 %
28.02.2022 10:26 5,9 C 10,6 C 1,7 C 65 % 1031,8 hPa 0,0 l/m 2 min 0 min 370 W/m 22,5 km/h (4 Bft) 95,74 %
28.02.2022 10:28 6,1 C 10,6 C 2,2 C 64 % 1031,7 hPa 0,0 l/m 2 min 0 min 427 W/m 19,3 km/h (3 Bft) 93,62 %
28.02.2022 10:30 6,1 C 10,6 C 2,2 C 64 % 1031,7 hPa 0,0 l/m 2 min 0 min 450 W/m 25,7 km/h (4 Bft) 95,74 %
28.02.2022 10:32 6,2 C 11,1 C 2,2 C 64 % 1031,8 hPa 0,0 l/m 2 min 0 min 457 W/m 19,3 km/h (3 Bft) 93,62 %
28.02.2022 10:34 6,3 C 11,7 C 2,2 C 64 % 1031,8 hPa 0,0 l/m 2 min 0 min 462 W/m 16,1 km/h (3 Bft) 95,74 %
28.02.2022 10:36 6,4 C 12,2 C 2,2 C 63 % 1031,7 hPa 0,0 l/m 2 min 0 min 461 W/m 19,3 km/h (3 Bft) 95,65 %
28.02.2022 10:38 6,5 C 12,2 C 2,2 C 63 % 1031,8 hPa 0,0 l/m 2 min 0 min 408 W/m 22,5 km/h (4 Bft) 95,74 %
28.02.2022 10:40 6,6 C 11,7 C 2,8 C 63 % 1031,7 hPa 0,0 l/m 2 min 0 min 377 W/m 22,5 km/h (4 Bft) 95,74 %
28.02.2022 10:42 6,6 C 11,7 C 2,8 C 62 % 1031,8 hPa 0,0 l/m 2 min 0 min 350 W/m 25,7 km/h (4 Bft) 95,74 %
28.02.2022 10:44 6,7 C 12,2 C 2,8 C 62 % 1031,8 hPa 0,0 l/m 2 min 0 min 332 W/m 22,5 km/h (4 Bft) 95,74 %
28.02.2022 10:46 6,8 C 12,2 C 2,8 C 62 % 1031,7 hPa 0,0 l/m 2 min 0 min 295 W/m 19,3 km/h (3 Bft) 91,30 %
28.02.2022 10:48 6,9 C 12,2 C 3,3 C 62 % 1031,7 hPa 0,0 l/m 2 min 0 min 394 W/m 19,3 km/h (3 Bft) 95,74 %
28.02.2022 10:50 7,0 C 13,3 C 3,3 C 62 % 1031,7 hPa 0,0 l/m 2 min 0 min 434 W/m 25,7 km/h (4 Bft) 95,74 %
28.02.2022 10:52 7,1 C 12,8 C 3,3 C 61 % 1031,8 hPa 0,0 l/m 2 min 0 min 493 W/m 29,0 km/h (5 Bft) 95,74 %
28.02.2022 10:54 7,1 C 13,3 C 3,3 C 61 % 1031,9 hPa 0,0 l/m 2 min 0 min 417 W/m 19,3 km/h (3 Bft) 93,62 %
28.02.2022 10:56 7,2 C 12,8 C 3,3 C 60 % 1031,8 hPa 0,0 l/m 2 min 0 min 389 W/m 22,5 km/h (4 Bft) 100,00 %
28.02.2022 10:58 7,2 C 12,8 C 3,3 C 60 % 1031,8 hPa 0,0 l/m 2 min 0 min 341 W/m 22,5 km/h (4 Bft) 97,83 %
28.02.2022 11:00 7,3 C 13,3 C 4,4 C 60 % 1031,9 hPa 0,0 l/m 2 min 0 min 334 W/m 19,3 km/h (3 Bft) 97,87 %
28.02.2022 11:02 7,4 C 12,8 C 5,0 C 60 % 1031,8 hPa 0,0 l/m 2 min 0 min 345 W/m 25,7 km/h (4 Bft) 97,87 %
28.02.2022 11:04 7,4 C 13,3 C 6,1 C 60 % 1031,8 hPa 0,0 l/m 2 min 0 min 450 W/m 16,1 km/h (3 Bft) 100,00 %
28.02.2022 11:06 7,6 C 14,4 C 7,2 C 60 % 1031,9 hPa 0,0 l/m 2 min 0 min 517 W/m 19,3 km/h (3 Bft) 97,87 %
28.02.2022 11:08 7,6 C 13,9 C 7,8 C 59 % 1031,8 hPa 0,0 l/m 2 min 0 min 478 W/m 22,5 km/h (4 Bft) 97,87 %
28.02.2022 11:10 7,7 C 14,4 C 8,3 C 59 % 1031,8 hPa 0,0 l/m 2 min 0 min 517 W/m 19,3 km/h (3 Bft) 100,00 %
28.02.2022 11:12 7,8 C 14,4 C 8,3 C 59 % 1031,8 hPa 0,0 l/m 2 min 0 min 502 W/m 19,3 km/h (3 Bft) 100,00 %
28.02.2022 11:14 7,9 C 14,4 C 8,9 C 59 % 1031,9 hPa 0,0 l/m 2 min 0 min 467 W/m 29,0 km/h (5 Bft) 100,00 %
28.02.2022 11:16 8,0 C 14,4 C 8,9 C 58 % 1031,9 hPa 0,0 l/m 2 min 0 min 478 W/m 19,3 km/h (3 Bft) 97,87 %
28.02.2022 11:18 8,1 C 14,4 C 8,9 C 58 % 1031,9 hPa 0,0 l/m 2 min 0 min 537 W/m 19,3 km/h (3 Bft) 100,00 %
28.02.2022 11:20 8,1 C 14,4 C 8,9 C 58 % 1031,9 hPa 0,0 l/m 2 min 0 min 539 W/m 22,5 km/h (4 Bft) 100,00 %
28.02.2022 11:22 8,1 C 13,9 C 8,9 C 58 % 1031,9 hPa 0,0 l/m 2 min 0 min 542 W/m 29,0 km/h (5 Bft) 100,00 %
28.02.2022 11:24 8,1 C 14,4 C 9,4 C 58 % 1031,9 hPa 0,0 l/m 2 min 0 min 544 W/m 19,3 km/h (3 Bft) 100,00 %
28.02.2022 11:26 8,2 C 13,9 C 9,4 C 58 % 1031,9 hPa 0,0 l/m 2 min 0 min 546 W/m 19,3 km/h (3 Bft) 100,00 %
28.02.2022 11:28 8,2 C 13,3 C 8,9 C 57 % 1031,9 hPa 0,0 l/m 2 min 0 min 548 W/m 25,7 km/h (4 Bft) 100,00 %
28.02.2022 11:30 8,2 C 13,3 C 8,9 C 57 % 1031,9 hPa 0,0 l/m 2 min 0 min 551 W/m 22,5 km/h (4 Bft) 100,00 %
28.02.2022 11:32 8,2 C 13,9 C 9,4 C 57 % 1031,8 hPa 0,0 l/m 2 min 0 min 553 W/m 25,7 km/h (4 Bft) 100,00 %
28.02.2022 11:34 8,3 C 15,0 C 10,0 C 57 % 1031,8 hPa 0,0 l/m 2 min 0 min 555 W/m 25,7 km/h (4 Bft) 100,00 %
28.02.2022 11:36 8,3 C 13,9 C 9,4 C 56 % 1031,8 hPa 0,0 l/m 2 min 0 min 559 W/m 32,2 km/h (5 Bft) 100,00 %
28.02.2022 11:38 8,4 C 13,9 C 9,4 C 56 % 1031,8 hPa 0,0 l/m 2 min 0 min 560 W/m 25,7 km/h (4 Bft) 100,00 %
28.02.2022 11:40 8,4 C 13,9 C 9,4 C 56 % 1031,9 hPa 0,0 l/m 2 min 0 min 562 W/m 19,3 km/h (3 Bft) 100,00 %
28.02.2022 11:42 8,4 C 13,3 C 8,9 C 56 % 1032,0 hPa 0,0 l/m 2 min 0 min 564 W/m 25,7 km/h (4 Bft) 97,87 %
28.02.2022 11:44 8,4 C 13,3 C 8,3 C 56 % 1032,0 hPa 0,0 l/m 2 min 0 min 565 W/m 29,0 km/h (5 Bft) 100,00 %
28.02.2022 11:46 8,4 C 13,9 C 8,3 C 55 % 1031,9 hPa 0,0 l/m 2 min 0 min 567 W/m 19,3 km/h (3 Bft) 97,87 %
28.02.2022 11:48 8,5 C 13,3 C 7,8 C 55 % 1031,9 hPa 0,0 l/m 2 min 0 min 569 W/m 25,7 km/h (4 Bft) 100,00 %
28.02.2022 11:50 8,5 C 12,8 C 7,8 C 55 % 1031,9 hPa 0,0 l/m 2 min 0 min 526 W/m 29,0 km/h (5 Bft) 100,00 %
28.02.2022 11:52 8,6 C 11,7 C 7,2 C 54 % 1031,9 hPa 0,0 l/m 2 min 0 min 419 W/m 29,0 km/h (5 Bft) 100,00 %
28.02.2022 11:54 8,6 C 11,1 C 7,2 C 54 % 1031,8 hPa 0,0 l/m 2 min 0 min 542 W/m 29,0 km/h (5 Bft) 100,00 %
28.02.2022 11:56 8,6 C 11,1 C 7,2 C 54 % 1031,8 hPa 0,0 l/m 2 min 0 min 381 W/m 25,7 km/h (4 Bft) 100,00 %
28.02.2022 11:58 8,6 C 11,7 C 7,2 C 55 % 1031,8 hPa 0,0 l/m 2 min 0 min 368 W/m 19,3 km/h (3 Bft) 100,00 %
28.02.2022 12:00 8,6 C 11,7 C 7,2 C 55 % 1031,8 hPa 0,0 l/m 2 min 0 min 375 W/m 35,4 km/h (5 Bft) 100,00 %
28.02.2022 12:02 8,7 C 11,1 C 6,7 C 55 % 1031,8 hPa 0,0 l/m 2 min 0 min 309 W/m 35,4 km/h (5 Bft) 100,00 %
28.02.2022 12:04 8,7 C 11,1 C 6,7 C 55 % 1031,8 hPa 0,0 l/m 2 min 0 min 350 W/m 25,7 km/h (4 Bft) 100,00 %
28.02.2022 12:08 8,7 C 10,0 C 6,1 C 54 % 1031,7 hPa 0,0 l/m 0 min 0 min 200 W/m 35,4 km/h (5 Bft) 97,85 %
28.02.2022 12:10 8,7 C 10,0 C 6,1 C 55 % 1031,6 hPa 0,0 l/m 0 min 0 min 73 W/m 22,5 km/h (4 Bft) 100,00 %
28.02.2022 12:12 8,6 C 9,4 C 6,1 C 54 % 1031,6 hPa 0,0 l/m 0 min 0 min 56 W/m 29,0 km/h (5 Bft) 100,00 %
28.02.2022 12:14 8,6 C 9,4 C 5,6 C 54 % 1031,6 hPa 0,0 l/m 0 min 0 min 90 W/m 19,3 km/h (3 Bft) 97,87 %
28.02.2022 12:16 8,6 C 10,0 C 5,6 C 55 % 1031,5 hPa 0,0 l/m 0 min 0 min 72 W/m 19,3 km/h (3 Bft) 97,87 %
28.02.2022 12:18 8,7 C 9,4 C 6,1 C 55 % 1031,5 hPa 0,0 l/m 0 min 0 min 94 W/m 25,7 km/h (4 Bft) 97,87 %
28.02.2022 12:20 8,7 C 9,4 C 6,1 C 54 % 1031,5 hPa 0,0 l/m 0 min 0 min 188 W/m 29,0 km/h (5 Bft) 97,83 %
28.02.2022 12:22 8,7 C 10,6 C 6,7 C 55 % 1031,4 hPa 0,0 l/m 0 min 0 min 203 W/m 19,3 km/h (3 Bft) 97,87 %
28.02.2022 12:24 8,7 C 10,6 C 7,2 C 55 % 1031,5 hPa 0,0 l/m 0 min 0 min 249 W/m 19,3 km/h (3 Bft) 97,87 %
28.02.2022 12:26 8,8 C 11,1 C 7,8 C 56 % 1031,4 hPa 0,0 l/m 0 min 0 min 203 W/m 22,5 km/h (4 Bft) 97,87 %
28.02.2022 12:28 8,8 C 11,7 C 7,8 C 56 % 1031,4 hPa 0,0 l/m 0 min 0 min 247 W/m 22,5 km/h (4 Bft) 97,87 %
28.02.2022 12:30 8,8 C 10,6 C 7,2 C 54 % 1031,4 hPa 0,0 l/m 2 min 0 min 323 W/m 32,2 km/h (5 Bft) 97,87 %
28.02.2022 12:32 8,8 C 10,6 C 7,2 C 53 % 1031,4 hPa 0,0 l/m 2 min 0 min 388 W/m 32,2 km/h (5 Bft) 98,11 %
28.02.2022 12:34 8,8 C 10,0 C 7,2 C 53 % 1031,4 hPa 0,0 l/m 2 min 0 min 326 W/m 29,0 km/h (5 Bft) 97,87 %
28.02.2022 12:36 8,9 C 10,6 C 7,2 C 54 % 1031,3 hPa 0,0 l/m 2 min 0 min 428 W/m 16,1 km/h (3 Bft) 97,83 %
28.02.2022 12:38 9,0 C 11,1 C 6,7 C 54 % 1031,3 hPa 0,0 l/m 2 min 0 min 444 W/m 25,7 km/h (4 Bft) 95,74 %
28.02.2022 12:40 9,1 C 11,1 C 6,7 C 54 % 1031,3 hPa 0,0 l/m 2 min 0 min 529 W/m 25,7 km/h (4 Bft) 95,74 %
28.02.2022 12:42 9,1 C 11,1 C 6,1 C 54 % 1031,3 hPa 0,0 l/m 2 min 0 min 564 W/m 35,4 km/h (5 Bft) 100,00 %
28.02.2022 12:44 9,2 C 11,7 C 6,1 C 53 % 1031,3 hPa 0,0 l/m 2 min 0 min 496 W/m 22,5 km/h (4 Bft) 97,87 %
28.02.2022 12:46 9,2 C 11,7 C 5,6 C 52 % 1031,3 hPa 0,0 l/m 2 min 0 min 542 W/m 38,6 km/h (5 Bft) 100,00 %
28.02.2022 12:48 9,2 C 11,7 C 5,6 C 53 % 1031,3 hPa 0,0 l/m 2 min 0 min 590 W/m 35,4 km/h (5 Bft) 97,83 %
28.02.2022 12:50 9,2 C 12,8 C 5,6 C 53 % 1031,2 hPa 0,0 l/m 2 min 0 min 592 W/m 22,5 km/h (4 Bft) 100,00 %
28.02.2022 12:52 9,3 C 12,8 C 5,6 C 53 % 1031,2 hPa 0,0 l/m 2 min 0 min 591 W/m 25,7 km/h (4 Bft) 97,87 %
28.02.2022 12:54 9,3 C 13,3 C 5,6 C 53 % 1031,2 hPa 0,0 l/m 2 min 0 min 592 W/m 35,4 km/h (5 Bft) 100,00 %
28.02.2022 12:56 9,3 C 13,9 C 5,6 C 52 % 1031,2 hPa 0,0 l/m 2 min 0 min 592 W/m 22,5 km/h (4 Bft) 97,87 %
28.02.2022 12:58 9,4 C 14,4 C 5,6 C 52 % 1031,2 hPa 0,0 l/m 2 min 0 min 592 W/m 32,2 km/h (5 Bft) 100,00 %
28.02.2022 13:00 9,4 C 15,0 C 5,6 C 52 % 1031,2 hPa 0,0 l/m 2 min 0 min 592 W/m 32,2 km/h (5 Bft) 100,00 %
28.02.2022 13:02 9,5 C 15,6 C 5,6 C 53 % 1031,1 hPa 0,0 l/m 2 min 0 min 592 W/m 25,7 km/h (4 Bft) 100,00 %
28.02.2022 13:04 9,6 C 16,1 C 5,6 C 52 % 1031,2 hPa 0,0 l/m 2 min 0 min 592 W/m 19,3 km/h (3 Bft) 100,00 %
28.02.2022 13:06 9,7 C 16,7 C 5,6 C 52 % 1031,1 hPa 0,0 l/m 2 min 0 min 593 W/m 19,3 km/h (3 Bft) 95,74 %
28.02.2022 13:08 9,8 C 17,2 C 6,1 C 53 % 1031,1 hPa 0,0 l/m 2 min 0 min 592 W/m 19,3 km/h (3 Bft) 97,87 %
28.02.2022 13:10 9,9 C 16,7 C 6,1 C 52 % 1031,1 hPa 0,0 l/m 2 min 0 min 591 W/m 22,5 km/h (4 Bft) 97,83 %
28.02.2022 13:12 10,0 C 17,8 C 6,1 C 52 % 1031,0 hPa 0,0 l/m 2 min 0 min 591 W/m 12,9 km/h (3 Bft) 97,87 %
28.02.2022 13:14 10,1 C 17,2 C 6,1 C 52 % 1030,9 hPa 0,0 l/m 2 min 0 min 587 W/m 22,5 km/h (4 Bft) 97,87 %
28.02.2022 13:16 10,1 C 17,2 C 6,1 C 51 % 1031,0 hPa 0,0 l/m 2 min 0 min 590 W/m 29,0 km/h (5 Bft) 97,87 %
28.02.2022 13:18 10,2 C 17,2 C 6,1 C 51 % 1031,0 hPa 0,0 l/m 2 min 0 min 588 W/m 25,7 km/h (4 Bft) 97,87 %
28.02.2022 13:20 10,2 C 16,7 C 6,1 C 50 % 1031,0 hPa 0,0 l/m 2 min 0 min 587 W/m 25,7 km/h (4 Bft) 95,74 %
28.02.2022 13:22 10,3 C 17,2 C 6,1 C 51 % 1030,9 hPa 0,0 l/m 2 min 0 min 585 W/m 22,5 km/h (4 Bft) 97,83 %
28.02.2022 13:24 10,3 C 17,8 C 6,1 C 51 % 1030,9 hPa 0,0 l/m 2 min 0 min 584 W/m 19,3 km/h (3 Bft) 97,87 %
28.02.2022 13:26 10,4 C 17,8 C 6,1 C 50 % 1030,9 hPa 0,0 l/m 2 min 0 min 583 W/m 22,5 km/h (4 Bft) 97,87 %
28.02.2022 13:28 10,4 C 17,2 C 6,1 C 50 % 1030,9 hPa 0,0 l/m 2 min 0 min 582 W/m 25,7 km/h (4 Bft) 97,87 %
28.02.2022 13:30 10,5 C 17,8 C 6,1 C 49 % 1030,9 hPa 0,0 l/m 2 min 0 min 581 W/m 32,2 km/h (5 Bft) 95,74 %
28.02.2022 13:32 10,6 C 17,8 C 6,1 C 49 % 1030,9 hPa 0,0 l/m 2 min 0 min 580 W/m 22,5 km/h (4 Bft) 95,74 %
28.02.2022 13:34 10,6 C 17,8 C 6,1 C 49 % 1031,0 hPa 0,0 l/m 2 min 0 min 577 W/m 25,7 km/h (4 Bft) 97,83 %
28.02.2022 13:36 10,6 C 18,9 C 6,1 C 50 % 1031,0 hPa 0,0 l/m 2 min 0 min 576 W/m 16,1 km/h (3 Bft) 95,74 %
28.02.2022 13:38 10,7 C 18,9 C 6,7 C 50 % 1031,0 hPa 0,0 l/m 2 min 0 min 575 W/m 22,5 km/h (4 Bft) 97,87 %
28.02.2022 13:40 10,8 C 18,3 C 6,7 C 50 % 1030,9 hPa 0,0 l/m 2 min 0 min 573 W/m 19,3 km/h (3 Bft) 95,74 %
28.02.2022 13:42 10,8 C 18,3 C 6,7 C 50 % 1030,9 hPa 0,0 l/m 2 min 0 min 570 W/m 22,5 km/h (4 Bft) 95,74 %
28.02.2022 13:44 10,9 C 17,8 C 6,7 C 49 % 1030,8 hPa 0,0 l/m 2 min 0 min 570 W/m 25,7 km/h (4 Bft) 97,87 %
28.02.2022 13:46 10,9 C 17,8 C 6,1 C 49 % 1030,8 hPa 0,0 l/m 2 min 0 min 568 W/m 22,5 km/h (4 Bft) 97,83 %
28.02.2022 13:48 10,9 C 17,8 C 6,7 C 48 % 1030,8 hPa 0,0 l/m 2 min 0 min 565 W/m 25,7 km/h (4 Bft) 97,87 %
28.02.2022 13:50 11,0 C 17,8 C 6,7 C 48 % 1030,8 hPa 0,0 l/m 2 min 0 min 564 W/m 22,5 km/h (4 Bft) 95,74 %
28.02.2022 13:52 11,0 C 18,3 C 6,7 C 48 % 1030,8 hPa 0,0 l/m 2 min 0 min 562 W/m 19,3 km/h (3 Bft) 97,87 %
28.02.2022 13:54 11,1 C 18,9 C 6,7 C 49 % 1030,7 hPa 0,0 l/m 2 min 0 min 560 W/m 19,3 km/h (3 Bft) 95,74 %
28.02.2022 13:56 11,2 C 18,9 C 6,7 C 49 % 1030,7 hPa 0,0 l/m 2 min 0 min 558 W/m 22,5 km/h (4 Bft) 97,87 %
28.02.2022 13:58 11,2 C 18,3 C 6,7 C 48 % 1030,7 hPa 0,0 l/m 2 min 0 min 555 W/m 22,5 km/h (4 Bft) 95,65 %
28.02.2022 14:00 11,2 C 18,3 C 6,7 C 48 % 1030,7 hPa 0,0 l/m 2 min 0 min 553 W/m 16,1 km/h (3 Bft) 95,74 %
28.02.2022 14:02 11,3 C 17,8 C 6,7 C 49 % 1030,7 hPa 0,0 l/m 2 min 0 min 552 W/m 19,3 km/h (3 Bft) 97,87 %
28.02.2022 14:04 11,4 C 17,2 C 6,7 C 48 % 1030,7 hPa 0,0 l/m 2 min 0 min 548 W/m 25,7 km/h (4 Bft) 97,87 %
28.02.2022 14:06 11,4 C 17,2 C 6,7 C 48 % 1030,7 hPa 0,0 l/m 2 min 0 min 546 W/m 19,3 km/h (3 Bft) 97,87 %
28.02.2022 14:08 11,4 C 17,2 C 6,7 C 48 % 1030,7 hPa 0,0 l/m 2 min 0 min 544 W/m 19,3 km/h (3 Bft) 95,74 %
28.02.2022 14:10 11,4 C 16,7 C 6,7 C 47 % 1030,7 hPa 0,0 l/m 2 min 0 min 543 W/m 22,5 km/h (4 Bft) 97,83 %
28.02.2022 14:12 11,5 C 17,2 C 6,7 C 47 % 1030,6 hPa 0,0 l/m 2 min 0 min 541 W/m 19,3 km/h (3 Bft) 95,74 %
28.02.2022 14:14 11,6 C 16,7 C 6,7 C 47 % 1030,6 hPa 0,0 l/m 2 min 0 min 540 W/m 22,5 km/h (4 Bft) 97,87 %
28.02.2022 14:16 11,6 C 15,6 C 6,7 C 47 % 1030,6 hPa 0,0 l/m 2 min 0 min 535 W/m 19,3 km/h (3 Bft) 95,74 %
28.02.2022 14:18 11,6 C 16,1 C 6,7 C 47 % 1030,6 hPa 0,0 l/m 2 min 0 min 532 W/m 16,1 km/h (3 Bft) 93,62 %
28.02.2022 14:20 11,6 C 15,6 C 6,7 C 47 % 1030,5 hPa 0,0 l/m 2 min 0 min 528 W/m 29,0 km/h (5 Bft) 95,74 %
28.02.2022 14:22 11,6 C 15,0 C 6,7 C 46 % 1030,5 hPa 0,0 l/m 2 min 0 min 527 W/m 19,3 km/h (3 Bft) 95,65 %
28.02.2022 14:24 11,6 C 16,1 C 6,7 C 46 % 1030,5 hPa 0,0 l/m 2 min 0 min 525 W/m 19,3 km/h (3 Bft) 95,74 %
28.02.2022 14:26 11,6 C 16,1 C 6,7 C 47 % 1030,5 hPa 0,0 l/m 2 min 0 min 521 W/m 22,5 km/h (4 Bft) 95,74 %
28.02.2022 14:28 11,6 C 16,1 C 6,7 C 46 % 1030,4 hPa 0,0 l/m 2 min 0 min 519 W/m 29,0 km/h (5 Bft) 95,74 %
28.02.2022 14:30 11,7 C 17,2 C 6,7 C 46 % 1030,4 hPa 0,0 l/m 2 min 0 min 515 W/m 19,3 km/h (3 Bft) 93,62 %
28.02.2022 14:32 11,7 C 16,1 C 6,7 C 46 % 1030,4 hPa 0,0 l/m 2 min 0 min 513 W/m 29,0 km/h (5 Bft) 95,74 %
28.02.2022 14:34 11,7 C 15,6 C 6,7 C 46 % 1030,3 hPa 0,0 l/m 2 min 0 min 510 W/m 19,3 km/h (3 Bft) 95,65 %
28.02.2022 14:36 11,7 C 15,6 C 6,7 C 46 % 1030,3 hPa 0,0 l/m 2 min 0 min 506 W/m 29,0 km/h (5 Bft) 95,74 %
28.02.2022 14:38 11,6 C 16,1 C 6,7 C 46 % 1030,3 hPa 0,0 l/m 2 min 0 min 503 W/m 19,3 km/h (3 Bft) 95,74 %
28.02.2022 14:40 11,6 C 15,6 C 6,7 C 45 % 1030,3 hPa 0,0 l/m 2 min 0 min 499 W/m 25,7 km/h (4 Bft) 97,87 %
28.02.2022 14:42 11,6 C 16,1 C 6,7 C 45 % 1030,2 hPa 0,0 l/m 2 min 0 min 496 W/m 25,7 km/h (4 Bft) 95,74 %
28.02.2022 14:44 11,6 C 17,2 C 7,2 C 46 % 1030,2 hPa 0,0 l/m 2 min 0 min 495 W/m 19,3 km/h (3 Bft) 95,74 %
28.02.2022 14:46 11,6 C 17,2 C 6,7 C 46 % 1030,1 hPa 0,0 l/m 2 min 0 min 490 W/m 19,3 km/h (3 Bft) 95,65 %
28.02.2022 14:48 11,6 C 16,7 C 6,7 C 46 % 1030,2 hPa 0,0 l/m 2 min 0 min 488 W/m 25,7 km/h (4 Bft) 95,74 %
28.02.2022 14:50 11,7 C 16,1 C 7,2 C 46 % 1030,1 hPa 0,0 l/m 2 min 0 min 484 W/m 16,1 km/h (3 Bft) 93,62 %
28.02.2022 14:52 11,7 C 16,1 C 7,2 C 46 % 1030,1 hPa 0,0 l/m 2 min 0 min 479 W/m 22,5 km/h (4 Bft) 95,74 %
28.02.2022 14:54 11,7 C 15,6 C 7,2 C 46 % 1030,1 hPa 0,0 l/m 2 min 0 min 476 W/m 25,7 km/h (4 Bft) 97,87 %
28.02.2022 14:56 11,8 C 15,0 C 7,2 C 47 % 1030,0 hPa 0,0 l/m 2 min 0 min 475 W/m 32,2 km/h (5 Bft) 95,65 %
28.02.2022 14:58 11,8 C 13,9 C 7,2 C 46 % 1030,0 hPa 0,0 l/m 2 min 0 min 470 W/m 25,7 km/h (4 Bft) 97,87 %
28.02.2022 15:00 11,8 C 13,9 C 7,2 C 45 % 1030,0 hPa 0,0 l/m 2 min 0 min 468 W/m 22,5 km/h (4 Bft) 76,32 %
28.02.2022 15:02 11,8 C 14,4 C 7,2 C 45 % 1030,0 hPa 0,0 l/m 2 min 0 min 464 W/m 22,5 km/h (4 Bft) 76,09 %
28.02.2022 15:04 11,8 C 15,0 C 7,2 C 45 % 1030,0 hPa 0,0 l/m 2 min 0 min 457 W/m 22,5 km/h (4 Bft) 95,92 %
28.02.2022 15:06 11,8 C 15,6 C 7,2 C 45 % 1030,1 hPa 0,0 l/m 2 min 0 min 453 W/m 22,5 km/h (4 Bft) 95,74 %
28.02.2022 15:08 11,8 C 16,1 C 7,2 C 45 % 1030,1 hPa 0,0 l/m 2 min 0 min 448 W/m 19,3 km/h (3 Bft) 97,87 %
28.02.2022 15:10 11,8 C 16,1 C 7,2 C 46 % 1030,1 hPa 0,0 l/m 2 min 0 min 444 W/m 19,3 km/h (3 Bft) 97,87 %
28.02.2022 15:12 11,8 C 15,6 C 7,2 C 46 % 1030,1 hPa 0,0 l/m 2 min 0 min 440 W/m 29,0 km/h (5 Bft) 98,11 %
28.02.2022 15:14 11,8 C 14,4 C 7,2 C 46 % 1030,1 hPa 0,0 l/m 2 min 0 min 436 W/m 25,7 km/h (4 Bft) 97,37 %
28.02.2022 15:16 11,8 C 15,0 C 7,2 C 46 % 1030,0 hPa 0,0 l/m 2 min 0 min 432 W/m 22,5 km/h (4 Bft) 95,92 %
28.02.2022 15:18 11,8 C 15,6 C 7,2 C 46 % 1030,0 hPa 0,0 l/m 2 min 0 min 428 W/m 19,3 km/h (3 Bft) 97,87 %
28.02.2022 15:20 11,8 C 15,0 C 7,2 C 46 % 1030,0 hPa 0,0 l/m 2 min 0 min 425 W/m 19,3 km/h (3 Bft) 97,87 %
28.02.2022 15:22 11,9 C 14,4 C 7,2 C 45 % 1030,0 hPa 0,0 l/m 2 min 0 min 421 W/m 16,1 km/h (3 Bft) 96,23 %
28.02.2022 15:24 11,9 C 14,4 C 7,2 C 45 % 1030,0 hPa 0,0 l/m 2 min 0 min 417 W/m 29,0 km/h (5 Bft) 100,00 %
28.02.2022 15:26 11,9 C 14,4 C 7,2 C 45 % 1030,0 hPa 0,0 l/m 2 min 0 min 410 W/m 22,5 km/h (4 Bft) 100,00 %
28.02.2022 15:28 11,9 C 15,0 C 6,7 C 44 % 1030,0 hPa 0,0 l/m 2 min 0 min 406 W/m 25,7 km/h (4 Bft) 100,00 %
28.02.2022 15:30 11,9 C 16,1 C 6,7 C 45 % 1030,0 hPa 0,0 l/m 2 min 0 min 401 W/m 16,1 km/h (3 Bft) 100,00 %
28.02.2022 15:32 11,9 C 16,7 C 6,7 C 45 % 1030,1 hPa 0,0 l/m 2 min 0 min 396 W/m 16,1 km/h (3 Bft) 100,00 %
28.02.2022 15:34 11,9 C 17,2 C 6,7 C 45 % 1030,1 hPa 0,0 l/m 2 min 0 min 392 W/m 16,1 km/h (3 Bft) 97,96 %
28.02.2022 15:36 11,9 C 16,7 C 6,7 C 45 % 1030,1 hPa 0,0 l/m 2 min 0 min 386 W/m 19,3 km/h (3 Bft) 97,87 %
28.02.2022 15:38 12,0 C 16,7 C 6,7 C 45 % 1030,1 hPa 0,0 l/m 2 min 0 min 366 W/m 12,9 km/h (3 Bft) 100,00 %
28.02.2022 15:40 12,0 C 17,2 C 6,7 C 46 % 1030,1 hPa 0,0 l/m 2 min 0 min 317 W/m 16,1 km/h (3 Bft) 97,83 %
28.02.2022 15:42 12,1 C 16,7 C 6,7 C 46 % 1030,1 hPa 0,0 l/m 2 min 0 min 372 W/m 16,1 km/h (3 Bft) 98,11 %
28.02.2022 15:44 12,1 C 15,6 C 6,7 C 45 % 1030,1 hPa 0,0 l/m 2 min 0 min 368 W/m 22,5 km/h (4 Bft) 97,37 %
28.02.2022 15:46 12,1 C 15,6 C 6,7 C 44 % 1030,1 hPa 0,0 l/m 2 min 0 min 364 W/m 19,3 km/h (3 Bft) 96,00 %
28.02.2022 15:48 12,2 C 15,0 C 6,7 C 44 % 1030,1 hPa 0,0 l/m 2 min 0 min 359 W/m 19,3 km/h (3 Bft) 97,87 %
28.02.2022 15:50 12,2 C 15,0 C 6,7 C 44 % 1030,1 hPa 0,0 l/m 2 min 0 min 354 W/m 16,1 km/h (3 Bft) 97,87 %
28.02.2022 15:52 12,2 C 15,6 C 6,7 C 44 % 1030,1 hPa 0,0 l/m 2 min 0 min 348 W/m 22,5 km/h (4 Bft) 96,23 %
28.02.2022 15:54 12,1 C 16,1 C 6,7 C 44 % 1030,1 hPa 0,0 l/m 2 min 0 min 343 W/m 16,1 km/h (3 Bft) 97,37 %
28.02.2022 15:56 12,2 C 16,1 C 6,7 C 45 % 1030,1 hPa 0,0 l/m 2 min 0 min 338 W/m 22,5 km/h (4 Bft) 97,83 %
28.02.2022 15:58 12,1 C 15,6 C 6,7 C 44 % 1030,1 hPa 0,0 l/m 2 min 0 min 332 W/m 19,3 km/h (3 Bft) 96,00 %
28.02.2022 16:00 12,1 C 15,0 C 6,7 C 45 % 1030,1 hPa 0,0 l/m 2 min 0 min 327 W/m 19,3 km/h (3 Bft) 95,74 %
28.02.2022 16:02 12,1 C 15,6 C 6,7 C 45 % 1030,1 hPa 0,0 l/m 2 min 0 min 320 W/m 16,1 km/h (3 Bft) 97,87 %
28.02.2022 16:04 12,1 C 15,6 C 6,7 C 46 % 1030,1 hPa 0,0 l/m 2 min 0 min 314 W/m 16,1 km/h (3 Bft) 97,83 %
28.02.2022 16:06 12,2 C 16,1 C 6,7 C 46 % 1030,1 hPa 0,0 l/m 2 min 0 min 307 W/m 22,5 km/h (4 Bft) 98,11 %
28.02.2022 16:08 12,2 C 14,4 C 6,7 C 46 % 1030,1 hPa 0,0 l/m 2 min 0 min 302 W/m 16,1 km/h (3 Bft) 97,87 %
28.02.2022 16:10 12,1 C 12,8 C 6,7 C 46 % 1030,1 hPa 0,0 l/m 2 min 0 min 297 W/m 19,3 km/h (3 Bft) 97,87 %
28.02.2022 16:12 12,1 C 11,7 C 6,7 C 46 % 1030,1 hPa 0,0 l/m 2 min 0 min 291 W/m 12,9 km/h (3 Bft) 97,37 %
28.02.2022 16:14 12,1 C 11,7 C 6,1 C 47 % 1030,0 hPa 0,0 l/m 2 min 0 min 284 W/m 16,1 km/h (3 Bft) 98,00 %
28.02.2022 16:16 12,1 C 11,1 C 6,1 C 47 % 1029,9 hPa 0,0 l/m 2 min 0 min 277 W/m 16,1 km/h (3 Bft) 95,65 %
28.02.2022 16:18 12,1 C 10,6 C 6,1 C 46 % 1029,9 hPa 0,0 l/m 2 min 0 min 270 W/m 19,3 km/h (3 Bft) 100,00 %
28.02.2022 16:20 12,0 C 10,6 C 6,1 C 46 % 1029,8 hPa 0,0 l/m 2 min 0 min 264 W/m 12,9 km/h (3 Bft) 100,00 %
28.02.2022 16:22 12,0 C 10,6 C 6,1 C 46 % 1029,8 hPa 0,0 l/m 2 min 0 min 258 W/m 22,5 km/h (4 Bft) 100,00 %
28.02.2022 16:24 11,9 C 10,6 C 6,1 C 46 % 1029,9 hPa 0,0 l/m 2 min 0 min 252 W/m 19,3 km/h (3 Bft) 100,00 %
28.02.2022 16:26 11,8 C 10,6 C 6,1 C 46 % 1029,8 hPa 0,0 l/m 2 min 0 min 246 W/m 22,5 km/h (4 Bft) 97,83 %
28.02.2022 16:28 11,8 C 10,6 C 6,1 C 46 % 1029,9 hPa 0,0 l/m 2 min 0 min 238 W/m 16,1 km/h (3 Bft) 100,00 %
28.02.2022 16:30 11,7 C 10,6 C 6,1 C 47 % 1029,8 hPa 0,0 l/m 2 min 0 min 232 W/m 16,1 km/h (3 Bft) 97,83 %
28.02.2022 16:32 11,7 C 10,0 C 6,1 C 47 % 1029,8 hPa 0,0 l/m 2 min 0 min 219 W/m 22,5 km/h (4 Bft) 100,00 %
28.02.2022 16:34 11,6 C 10,0 C 6,1 C 47 % 1029,8 hPa 0,0 l/m 2 min 0 min 145 W/m 16,1 km/h (3 Bft) 98,00 %
28.02.2022 16:36 11,5 C 10,0 C 6,1 C 47 % 1029,8 hPa 0,0 l/m 2 min 0 min 168 W/m 19,3 km/h (3 Bft) 100,00 %
28.02.2022 16:38 11,4 C 10,0 C 6,1 C 47 % 1029,7 hPa 0,0 l/m 2 min 0 min 113 W/m 12,9 km/h (3 Bft) 100,00 %
28.02.2022 16:40 11,3 C 10,0 C 6,1 C 47 % 1029,7 hPa 0,0 l/m 0 min 0 min 36 W/m 22,5 km/h (4 Bft) 98,11 %
28.02.2022 16:42 11,3 C 10,0 C 6,1 C 48 % 1029,7 hPa 0,0 l/m 0 min 0 min 35 W/m 12,9 km/h (3 Bft) 100,00 %
28.02.2022 16:44 11,2 C 10,0 C 6,1 C 48 % 1029,7 hPa 0,0 l/m 0 min 0 min 35 W/m 12,9 km/h (3 Bft) 100,00 %
28.02.2022 16:46 11,1 C 10,0 C 5,6 C 49 % 1029,7 hPa 0,0 l/m 0 min 0 min 33 W/m 16,1 km/h (3 Bft) 97,87 %
28.02.2022 16:48 11,1 C 10,0 C 5,6 C 49 % 1029,6 hPa 0,0 l/m 0 min 0 min 33 W/m 16,1 km/h (3 Bft) 98,11 %
28.02.2022 16:50 11,0 C 10,0 C 5,6 C 50 % 1029,7 hPa 0,0 l/m 0 min 0 min 33 W/m 16,1 km/h (3 Bft) 100,00 %
28.02.2022 16:52 10,9 C 10,0 C 6,1 C 49 % 1029,6 hPa 0,0 l/m 0 min 0 min 33 W/m 12,9 km/h (3 Bft) 100,00 %
28.02.2022 16:54 10,9 C 10,0 C 5,6 C 50 % 1029,6 hPa 0,0 l/m 0 min 0 min 33 W/m 12,9 km/h (3 Bft) 100,00 %
28.02.2022 16:56 10,8 C 10,0 C 5,6 C 50 % 1029,6 hPa 0,0 l/m 0 min 0 min 32 W/m 16,1 km/h (3 Bft) 97,87 %
28.02.2022 16:58 10,8 C 10,0 C 5,6 C 50 % 1029,5 hPa 0,0 l/m 0 min 0 min 32 W/m 12,9 km/h (3 Bft) 100,00 %
28.02.2022 17:00 10,8 C 10,0 C 5,6 C 50 % 1029,5 hPa 0,0 l/m 0 min 0 min 32 W/m 12,9 km/h (3 Bft) 97,87 %
28.02.2022 17:02 10,7 C 10,0 C 5,6 C 51 % 1029,4 hPa 0,0 l/m 0 min 0 min 30 W/m 9,7 km/h (2 Bft) 97,37 %
28.02.2022 17:04 10,7 C 10,0 C 5,6 C 52 % 1029,3 hPa 0,0 l/m 0 min 0 min 30 W/m 12,9 km/h (3 Bft) 95,74 %
28.02.2022 17:06 10,7 C 10,0 C 5,6 C 52 % 1029,3 hPa 0,0 l/m 0 min 0 min 30 W/m 12,9 km/h (3 Bft) 97,96 %
28.02.2022 17:08 10,6 C 9,4 C 5,6 C 52 % 1029,3 hPa 0,0 l/m 0 min 0 min 30 W/m 19,3 km/h (3 Bft) 96,00 %
28.02.2022 17:10 10,6 C 9,4 C 5,6 C 52 % 1029,2 hPa 0,0 l/m 0 min 0 min 28 W/m 12,9 km/h (3 Bft) 95,74 %
28.02.2022 17:12 10,6 C 9,4 C 5,6 C 52 % 1029,2 hPa 0,0 l/m 0 min 0 min 28 W/m 16,1 km/h (3 Bft) 97,56 %
28.02.2022 17:14 10,5 C 9,4 C 5,6 C 52 % 1029,1 hPa 0,0 l/m 0 min 0 min 28 W/m 12,9 km/h (3 Bft) 98,00 %
28.02.2022 17:16 10,4 C 9,4 C 5,6 C 52 % 1029,2 hPa 0,0 l/m 0 min 0 min 26 W/m 16,1 km/h (3 Bft) 97,96 %
28.02.2022 17:18 10,4 C 9,4 C 5,6 C 53 % 1029,1 hPa 0,0 l/m 0 min 0 min 26 W/m 6,4 km/h (2 Bft) 97,87 %
28.02.2022 17:20 10,4 C 9,4 C 5,0 C 53 % 1029,1 hPa 0,0 l/m 0 min 0 min 28 W/m 12,9 km/h (3 Bft) 95,12 %
28.02.2022 17:22 10,4 C 9,4 C 5,0 C 53 % 1029,0 hPa 0,0 l/m 0 min 0 min 30 W/m 12,9 km/h (3 Bft) 95,74 %
28.02.2022 17:24 10,3 C 9,4 C 5,0 C 54 % 1029,1 hPa 0,0 l/m 0 min 0 min 25 W/m 9,7 km/h (2 Bft) 98,00 %
28.02.2022 17:26 10,3 C 9,4 C 5,0 C 54 % 1029,0 hPa 0,0 l/m 0 min 0 min 25 W/m 19,3 km/h (3 Bft) 97,96 %
28.02.2022 17:28 10,3 C 9,4 C 5,0 C 54 % 1029,0 hPa 0,0 l/m 0 min 0 min 23 W/m 19,3 km/h (3 Bft) 95,74 %
28.02.2022 17:30 10,2 C 8,9 C 5,0 C 54 % 1029,1 hPa 0,0 l/m 0 min 0 min 23 W/m 16,1 km/h (3 Bft) 100,00 %
28.02.2022 17:32 10,1 C 8,9 C 5,0 C 54 % 1029,0 hPa 0,0 l/m 0 min 0 min 21 W/m 12,9 km/h (3 Bft) 100,00 %
28.02.2022 17:34 10,1 C 8,9 C 5,0 C 54 % 1029,0 hPa 0,0 l/m 0 min 0 min 21 W/m 16,1 km/h (3 Bft) 100,00 %
28.02.2022 17:36 10,1 C 8,9 C 5,0 C 54 % 1029,0 hPa 0,0 l/m 0 min 0 min 21 W/m 19,3 km/h (3 Bft) 97,83 %
28.02.2022 17:38 10,1 C 8,9 C 5,0 C 54 % 1029,0 hPa 0,0 l/m 0 min 0 min 19 W/m 19,3 km/h (3 Bft) 97,87 %
28.02.2022 17:40 10,0 C 8,9 C 5,0 C 54 % 1029,0 hPa 0,0 l/m 0 min 0 min 19 W/m 12,9 km/h (3 Bft) 95,74 %
28.02.2022 17:42 9,9 C 8,9 C 5,0 C 54 % 1029,0 hPa 0,0 l/m 0 min 0 min 18 W/m 16,1 km/h (3 Bft) 95,12 %
28.02.2022 17:44 9,9 C 8,9 C 5,0 C 55 % 1029,0 hPa 0,0 l/m 0 min 0 min 18 W/m 16,1 km/h (3 Bft) 98,00 %
28.02.2022 17:46 9,8 C 8,9 C 4,4 C 55 % 1029,0 hPa 0,0 l/m 0 min 0 min 16 W/m 16,1 km/h (3 Bft) 97,87 %
28.02.2022 17:48 9,8 C 8,3 C 4,4 C 55 % 1029,1 hPa 0,0 l/m 0 min 0 min 14 W/m 16,1 km/h (3 Bft) 97,96 %
28.02.2022 17:50 9,7 C 8,3 C 4,4 C 55 % 1029,0 hPa 0,0 l/m 0 min 0 min 12 W/m 16,1 km/h (3 Bft) 97,87 %
28.02.2022 17:52 9,7 C 8,3 C 4,4 C 54 % 1029,0 hPa 0,0 l/m 0 min 0 min 12 W/m 19,3 km/h (3 Bft) 95,24 %
28.02.2022 17:54 9,7 C 8,3 C 4,4 C 54 % 1029,0 hPa 0,0 l/m 0 min 0 min 12 W/m 16,1 km/h (3 Bft) 97,83 %
28.02.2022 17:56 9,6 C 8,3 C 4,4 C 55 % 1029,0 hPa 0,0 l/m 0 min 0 min 12 W/m 12,9 km/h (3 Bft) 96,00 %
28.02.2022 17:58 9,6 C 8,3 C 4,4 C 55 % 1029,0 hPa 0,0 l/m 0 min 0 min 11 W/m 22,5 km/h (4 Bft) 95,92 %
28.02.2022 18:00 9,5 C 8,3 C 4,4 C 55 % 1029,0 hPa 0,0 l/m 0 min 0 min 11 W/m 12,9 km/h (3 Bft) 95,74 %
28.02.2022 18:02 9,4 C 8,3 C 4,4 C 56 % 1028,9 hPa 0,0 l/m 0 min 0 min 9 W/m 16,1 km/h (3 Bft) 95,74 %
28.02.2022 18:04 9,4 C 8,3 C 4,4 C 56 % 1029,0 hPa 0,0 l/m 0 min 0 min 8 W/m 12,9 km/h (3 Bft) 94,74 %
28.02.2022 18:08 9,3 C 8,3 C 4,4 C 56 % 1029,0 hPa 0,0 l/m 0 min 0 min 6 W/m 16,1 km/h (3 Bft) 95,00 %
28.02.2022 18:10 9,2 C 8,3 C 4,4 C 56 % 1028,9 hPa 0,0 l/m 0 min 0 min 5 W/m 12,9 km/h (3 Bft) 98,00 %
28.02.2022 18:12 9,2 C 7,8 C 4,4 C 56 % 1028,9 hPa 0,0 l/m 0 min 0 min 1 W/m 12,9 km/h (3 Bft) 97,87 %
28.02.2022 18:14 9,2 C 7,8 C 3,9 C 56 % 1028,9 hPa 0,0 l/m 0 min 0 min 0 W/m 16,1 km/h (3 Bft) 95,92 %
28.02.2022 18:16 9,1 C 7,8 C 4,4 C 55 % 1028,9 hPa 0,0 l/m 0 min 0 min 0 W/m 16,1 km/h (3 Bft) 100,00 %
28.02.2022 18:18 9,1 C 7,8 C 4,4 C 55 % 1029,0 hPa 0,0 l/m 0 min 0 min 0 W/m 16,1 km/h (3 Bft) 96,23 %
28.02.2022 18:20 9,1 C 7,8 C 3,9 C 55 % 1029,0 hPa 0,0 l/m 0 min 0 min 0 W/m 16,1 km/h (3 Bft) 98,00 %
28.02.2022 18:22 9,0 C 7,8 C 3,9 C 55 % 1029,0 hPa 0,0 l/m 0 min 0 min 0 W/m 22,5 km/h (4 Bft) 97,96 %
28.02.2022 18:24 8,9 C 7,8 C 3,9 C 55 % 1029,0 hPa 0,0 l/m 0 min 0 min 0 W/m 19,3 km/h (3 Bft) 97,14 %
28.02.2022 18:26 8,9 C 7,8 C 3,9 C 55 % 1029,0 hPa 0,0 l/m 0 min 0 min 0 W/m 12,9 km/h (3 Bft) 98,11 %
28.02.2022 18:28 8,9 C 7,8 C 3,9 C 55 % 1029,1 hPa 0,0 l/m 0 min 0 min 0 W/m 19,3 km/h (3 Bft) 97,87 %
28.02.2022 18:30 8,9 C 7,8 C 3,9 C 56 % 1029,1 hPa 0,0 l/m 0 min 0 min 0 W/m 16,1 km/h (3 Bft) 98,00 %
28.02.2022 18:32 8,8 C 7,8 C 3,9 C 56 % 1029,1 hPa 0,0 l/m 0 min 0 min 0 W/m 12,9 km/h (3 Bft) 95,92 %
28.02.2022 18:34 8,8 C 7,8 C 3,9 C 56 % 1029,2 hPa 0,0 l/m 0 min 0 min 0 W/m 16,1 km/h (3 Bft) 97,22 %
28.02.2022 18:36 8,8 C 7,8 C 3,9 C 56 % 1029,2 hPa 0,0 l/m 0 min 0 min 0 W/m 12,9 km/h (3 Bft) 94,34 %
28.02.2022 18:38 8,8 C 7,8 C 3,9 C 56 % 1029,2 hPa 0,0 l/m 0 min 0 min 0 W/m 12,9 km/h (3 Bft) 97,87 %
28.02.2022 18:40 8,7 C 7,2 C 3,3 C 56 % 1029,2 hPa 0,0 l/m 0 min 0 min 0 W/m 6,4 km/h (2 Bft) 97,87 %
28.02.2022 18:42 8,7 C 7,2 C 3,3 C 56 % 1029,3 hPa 0,0 l/m 0 min 0 min 0 W/m 12,9 km/h (3 Bft) 97,67 %
28.02.2022 18:44 8,6 C 7,2 C 3,3 C 56 % 1029,2 hPa 0,0 l/m 0 min 0 min 0 W/m 12,9 km/h (3 Bft) 98,00 %
28.02.2022 18:46 8,6 C 7,2 C 3,3 C 56 % 1029,2 hPa 0,0 l/m 0 min 0 min 0 W/m 16,1 km/h (3 Bft) 95,74 %
28.02.2022 18:48 8,5 C 7,2 C 3,3 C 56 % 1029,2 hPa 0,0 l/m 0 min 0 min 0 W/m 16,1 km/h (3 Bft) 95,74 %
28.02.2022 18:50 8,5 C 7,2 C 3,3 C 56 % 1029,2 hPa 0,0 l/m 0 min 0 min 0 W/m 12,9 km/h (3 Bft) 97,87 %
28.02.2022 18:52 8,4 C 7,2 C 3,3 C 56 % 1029,2 hPa 0,0 l/m 0 min 0 min 0 W/m 16,1 km/h (3 Bft) 91,49 %
28.02.2022 18:54 8,4 C 7,2 C 3,3 C 56 % 1029,2 hPa 0,0 l/m 0 min 0 min 0 W/m 16,1 km/h (3 Bft) 95,74 %
28.02.2022 18:56 8,4 C 7,2 C 3,3 C 56 % 1029,3 hPa 0,0 l/m 0 min 0 min 0 W/m 12,9 km/h (3 Bft) 97,67 %
28.02.2022 18:58 8,4 C 7,2 C 3,3 C 56 % 1029,3 hPa 0,0 l/m 0 min 0 min 0 W/m 16,1 km/h (3 Bft) 98,00 %
28.02.2022 19:00 8,3 C 7,2 C 3,3 C 57 % 1029,2 hPa 0,0 l/m 0 min 0 min 0 W/m 12,9 km/h (3 Bft) 97,87 %
28.02.2022 19:02 8,3 C 7,2 C 3,3 C 57 % 1029,3 hPa 0,0 l/m 0 min 0 min 0 W/m 12,9 km/h (3 Bft) 97,87 %
28.02.2022 19:04 8,2 C 7,2 C 3,3 C 56 % 1029,3 hPa 0,0 l/m 0 min 0 min 0 W/m 19,3 km/h (3 Bft) 97,67 %
28.02.2022 19:06 8,2 C 7,2 C 3,3 C 57 % 1029,3 hPa 0,0 l/m 0 min 0 min 0 W/m 19,3 km/h (3 Bft) 98,00 %
28.02.2022 19:08 8,2 C 7,2 C 3,3 C 56 % 1029,2 hPa 0,0 l/m 0 min 0 min 0 W/m 19,3 km/h (3 Bft) 97,87 %
28.02.2022 19:10 8,1 C 7,2 C 3,3 C 57 % 1029,2 hPa 0,0 l/m 0 min 0 min 0 W/m 19,3 km/h (3 Bft) 95,74 %
28.02.2022 19:12 8,1 C 7,2 C 3,3 C 56 % 1029,2 hPa 0,0 l/m 0 min 0 min 0 W/m 19,3 km/h (3 Bft) 97,87 %
28.02.2022 19:14 8,1 C 7,2 C 3,3 C 57 % 1029,2 hPa 0,0 l/m 0 min 0 min 0 W/m 12,9 km/h (3 Bft) 97,87 %
28.02.2022 19:16 8,1 C 7,2 C 3,3 C 57 % 1029,2 hPa 0,0 l/m 0 min 0 min 0 W/m 12,9 km/h (3 Bft) 97,87 %
28.02.2022 19:18 8,0 C 7,2 C 3,3 C 57 % 1029,2 hPa 0,0 l/m 0 min 0 min 0 W/m 16,1 km/h (3 Bft) 97,67 %
28.02.2022 19:20 8,0 C 7,2 C 3,3 C 57 % 1029,2 hPa 0,0 l/m 0 min 0 min 0 W/m 16,1 km/h (3 Bft) 100,00 %
28.02.2022 19:22 7,9 C 6,7 C 2,8 C 57 % 1029,3 hPa 0,0 l/m 0 min 0 min 0 W/m 6,4 km/h (2 Bft) 98,00 %
28.02.2022 19:24 7,9 C 6,7 C 2,8 C 57 % 1029,3 hPa 0,0 l/m 0 min 0 min 0 W/m 12,9 km/h (3 Bft) 100,00 %
28.02.2022 19:26 7,9 C 6,7 C 2,8 C 57 % 1029,3 hPa 0,0 l/m 0 min 0 min 0 W/m 12,9 km/h (3 Bft) 100,00 %
28.02.2022 19:28 7,8 C 6,7 C 2,8 C 57 % 1029,3 hPa 0,0 l/m 0 min 0 min 0 W/m 12,9 km/h (3 Bft) 100,00 %
28.02.2022 19:30 7,8 C 6,7 C 2,8 C 57 % 1029,3 hPa 0,0 l/m 0 min 0 min 0 W/m 12,9 km/h (3 Bft) 95,35 %
28.02.2022 19:32 7,8 C 6,7 C 2,8 C 57 % 1029,4 hPa 0,0 l/m 0 min 0 min 0 W/m 12,9 km/h (3 Bft) 96,00 %
28.02.2022 19:34 7,7 C 6,7 C 2,8 C 57 % 1029,4 hPa 0,0 l/m 0 min 0 min 0 W/m 12,9 km/h (3 Bft) 95,74 %
28.02.2022 19:36 7,7 C 6,7 C 2,8 C 57 % 1029,4 hPa 0,0 l/m 0 min 0 min 0 W/m 12,9 km/h (3 Bft) 97,87 %
28.02.2022 19:38 7,7 C 6,7 C 2,8 C 57 % 1029,4 hPa 0,0 l/m 0 min 0 min 0 W/m 12,9 km/h (3 Bft) 97,87 %
28.02.2022 19:40 7,6 C 6,7 C 2,8 C 57 % 1029,5 hPa 0,0 l/m 0 min 0 min 0 W/m 16,1 km/h (3 Bft) 97,67 %
28.02.2022 19:42 7,6 C 6,7 C 2,8 C 57 % 1029,5 hPa 0,0 l/m 0 min 0 min 0 W/m 12,9 km/h (3 Bft) 98,00 %
28.02.2022 19:44 7,5 C 6,7 C 2,8 C 57 % 1029,5 hPa 0,0 l/m 0 min 0 min 0 W/m 16,1 km/h (3 Bft) 97,87 %
28.02.2022 19:46 7,5 C 6,7 C 2,8 C 57 % 1029,5 hPa 0,0 l/m 0 min 0 min 0 W/m 16,1 km/h (3 Bft) 97,87 %
28.02.2022 19:48 7,4 C 6,7 C 2,8 C 57 % 1029,5 hPa 0,0 l/m 0 min 0 min 0 W/m 16,1 km/h (3 Bft) 96,23 %
28.02.2022 19:50 7,4 C 6,1 C 2,8 C 57 % 1029,5 hPa 0,0 l/m 0 min 0 min 0 W/m 16,1 km/h (3 Bft) 97,87 %
28.02.2022 19:52 7,4 C 6,1 C 2,8 C 57 % 1029,5 hPa 0,0 l/m 0 min 0 min 0 W/m 16,1 km/h (3 Bft) 97,87 %
28.02.2022 19:54 7,4 C 6,1 C 2,8 C 57 % 1029,5 hPa 0,0 l/m 0 min 0 min 0 W/m 12,9 km/h (3 Bft) 95,74 %
28.02.2022 19:56 7,3 C 6,7 C 2,8 C 57 % 1029,5 hPa 0,0 l/m 0 min 0 min 0 W/m 19,3 km/h (3 Bft) 97,87 %
28.02.2022 19:58 7,3 C 6,7 C 2,8 C 57 % 1029,5 hPa 0,0 l/m 0 min 0 min 0 W/m 12,9 km/h (3 Bft) 97,83 %
28.02.2022 20:00 7,3 C 6,7 C 2,8 C 57 % 1029,5 hPa 0,0 l/m 0 min 0 min 0 W/m 12,9 km/h (3 Bft) 97,92 %
28.02.2022 20:02 7,3 C 6,1 C 2,8 C 57 % 1029,5 hPa 0,0 l/m 0 min 0 min 0 W/m 12,9 km/h (3 Bft) 100,00 %
28.02.2022 20:04 7,3 C 6,1 C 2,8 C 57 % 1029,5 hPa 0,0 l/m 0 min 0 min 0 W/m 12,9 km/h (3 Bft) 100,00 %
28.02.2022 20:06 7,3 C 6,1 C 2,8 C 57 % 1029,5 hPa 0,0 l/m 0 min 0 min 0 W/m 19,3 km/h (3 Bft) 100,00 %
28.02.2022 20:08 7,2 C 6,1 C 2,8 C 57 % 1029,6 hPa 0,0 l/m 0 min 0 min 0 W/m 12,9 km/h (3 Bft) 100,00 %
28.02.2022 20:10 7,2 C 6,1 C 2,2 C 57 % 1029,6 hPa 0,0 l/m 0 min 0 min 0 W/m 12,9 km/h (3 Bft) 100,00 %
28.02.2022 20:12 7,2 C 6,1 C 2,2 C 57 % 1029,6 hPa 0,0 l/m 0 min 0 min 0 W/m 16,1 km/h (3 Bft) 100,00 %
28.02.2022 20:14 7,2 C 6,1 C 2,2 C 57 % 1029,5 hPa 0,0 l/m 0 min 0 min 0 W/m 6,4 km/h (2 Bft) 100,00 %
28.02.2022 20:16 7,1 C 6,1 C 2,2 C 57 % 1029,6 hPa 0,0 l/m 0 min 0 min 0 W/m 12,9 km/h (3 Bft) 100,00 %
28.02.2022 20:18 7,1 C 6,1 C 2,2 C 57 % 1029,6 hPa 0,0 l/m 0 min 0 min 0 W/m 16,1 km/h (3 Bft) 100,00 %
28.02.2022 20:20 7,1 C 6,1 C 2,2 C 57 % 1029,6 hPa 0,0 l/m 0 min 0 min 0 W/m 12,9 km/h (3 Bft) 100,00 %
28.02.2022 20:22 7,1 C 6,1 C 2,2 C 57 % 1029,6 hPa 0,0 l/m 0 min 0 min 0 W/m 12,9 km/h (3 Bft) 100,00 %
28.02.2022 20:24 7,1 C 6,1 C 2,2 C 57 % 1029,6 hPa 0,0 l/m 0 min 0 min 0 W/m 6,4 km/h (2 Bft) 97,87 %
28.02.2022 20:26 7,0 C 6,1 C 2,2 C 57 % 1029,7 hPa 0,0 l/m 0 min 0 min 0 W/m 16,1 km/h (3 Bft) 100,00 %
28.02.2022 20:28 7,0 C 6,1 C 2,2 C 57 % 1029,6 hPa 0,0 l/m 0 min 0 min 0 W/m 12,9 km/h (3 Bft) 100,00 %
28.02.2022 20:30 7,0 C 6,1 C 2,2 C 57 % 1029,6 hPa 0,0 l/m 0 min 0 min 0 W/m 16,1 km/h (3 Bft) 100,00 %
28.02.2022 20:32 7,0 C 6,1 C 2,2 C 57 % 1029,6 hPa 0,0 l/m 0 min 0 min 0 W/m 22,5 km/h (4 Bft) 100,00 %
28.02.2022 20:34 6,9 C 6,1 C 2,2 C 57 % 1029,7 hPa 0,0 l/m 0 min 0 min 0 W/m 16,1 km/h (3 Bft) 97,87 %
28.02.2022 20:36 6,9 C 6,1 C 2,2 C 57 % 1029,7 hPa 0,0 l/m 0 min 0 min 0 W/m 16,1 km/h (3 Bft) 97,83 %
28.02.2022 20:38 6,9 C 6,1 C 2,2 C 57 % 1029,7 hPa 0,0 l/m 0 min 0 min 0 W/m 16,1 km/h (3 Bft) 97,87 %
28.02.2022 20:40 6,9 C 6,1 C 2,2 C 57 % 1029,8 hPa 0,0 l/m 0 min 0 min 0 W/m 12,9 km/h (3 Bft) 100,00 %
28.02.2022 20:42 6,9 C 6,1 C 2,2 C 57 % 1029,7 hPa 0,0 l/m 0 min 0 min 0 W/m 12,9 km/h (3 Bft) 100,00 %
28.02.2022 20:44 6,9 C 6,1 C 2,2 C 57 % 1029,8 hPa 0,0 l/m 0 min 0 min 0 W/m 12,9 km/h (3 Bft) 97,87 %
28.02.2022 20:46 6,9 C 6,1 C 2,2 C 57 % 1029,8 hPa 0,0 l/m 0 min 0 min 0 W/m 12,9 km/h (3 Bft) 70,21 %
28.02.2022 20:48 6,8 C 6,1 C 2,2 C 57 % 1029,8 hPa 0,0 l/m 0 min 0 min 0 W/m 12,9 km/h (3 Bft) 86,36 %
28.02.2022 20:50 6,8 C 6,1 C 2,2 C 58 % 1029,8 hPa 0,0 l/m 0 min 0 min 0 W/m 12,9 km/h (3 Bft) 97,87 %
28.02.2022 20:52 6,8 C 6,1 C 2,2 C 58 % 1029,8 hPa 0,0 l/m 0 min 0 min 0 W/m 16,1 km/h (3 Bft) 97,87 %
28.02.2022 20:54 6,8 C 5,6 C 2,2 C 58 % 1029,8 hPa 0,0 l/m 0 min 0 min 0 W/m 12,9 km/h (3 Bft) 97,87 %
28.02.2022 20:56 6,8 C 5,6 C 2,2 C 58 % 1029,8 hPa 0,0 l/m 0 min 0 min 0 W/m 12,9 km/h (3 Bft) 95,74 %
28.02.2022 20:58 6,8 C 5,6 C 1,7 C 58 % 1029,8 hPa 0,0 l/m 0 min 0 min 0 W/m 12,9 km/h (3 Bft) 97,83 %
28.02.2022 21:00 6,7 C 5,6 C 1,7 C 58 % 1029,9 hPa 0,0 l/m 0 min 0 min 0 W/m 6,4 km/h (2 Bft) 97,87 %
28.02.2022 21:02 6,7 C 5,6 C 1,7 C 58 % 1029,8 hPa 0,0 l/m 0 min 0 min 0 W/m 12,9 km/h (3 Bft) 97,87 %
28.02.2022 21:04 6,7 C 5,6 C 1,7 C 58 % 1029,9 hPa 0,0 l/m 0 min 0 min 0 W/m 12,9 km/h (3 Bft) 97,87 %
28.02.2022 21:06 6,6 C 5,6 C 1,7 C 59 % 1029,9 hPa 0,0 l/m 0 min 0 min 0 W/m 9,7 km/h (2 Bft) 97,87 %
28.02.2022 21:08 6,6 C 5,6 C 1,7 C 59 % 1029,9 hPa 0,0 l/m 0 min 0 min 0 W/m 6,4 km/h (2 Bft) 97,87 %
28.02.2022 21:10 6,5 C 5,6 C 1,7 C 59 % 1029,9 hPa 0,0 l/m 0 min 0 min 0 W/m 12,9 km/h (3 Bft) 95,65 %
28.02.2022 21:12 6,5 C 5,6 C 1,7 C 59 % 1029,8 hPa 0,0 l/m 0 min 0 min 0 W/m 9,7 km/h (2 Bft) 97,87 %
28.02.2022 21:14 6,5 C 5,6 C 1,7 C 59 % 1029,9 hPa 0,0 l/m 0 min 0 min 0 W/m 16,1 km/h (3 Bft) 93,62 %
28.02.2022 21:16 6,5 C 5,6 C 1,7 C 59 % 1029,8 hPa 0,0 l/m 0 min 0 min 0 W/m 12,9 km/h (3 Bft) 95,74 %
28.02.2022 21:18 6,4 C 5,0 C 1,7 C 59 % 1029,7 hPa 0,0 l/m 0 min 0 min 0 W/m 12,9 km/h (3 Bft) 93,62 %
28.02.2022 21:20 6,4 C 5,0 C 1,7 C 60 % 1029,7 hPa 0,0 l/m 0 min 0 min 0 W/m 3,2 km/h (1 Bft) 91,49 %
28.02.2022 21:22 6,3 C 5,0 C 1,1 C 60 % 1029,7 hPa 0,0 l/m 0 min 0 min 0 W/m 6,4 km/h (2 Bft) 95,65 %
28.02.2022 21:24 6,3 C 5,0 C 1,1 C 60 % 1029,7 hPa 0,0 l/m 0 min 0 min 0 W/m 12,9 km/h (3 Bft) 93,62 %
28.02.2022 21:26 6,3 C 5,0 C 1,1 C 60 % 1029,7 hPa 0,0 l/m 0 min 0 min 0 W/m 6,4 km/h (2 Bft) 95,74 %
28.02.2022 21:28 6,2 C 5,0 C 1,1 C 60 % 1029,7 hPa 0,0 l/m 0 min 0 min 0 W/m 6,4 km/h (2 Bft) 93,62 %
28.02.2022 21:30 6,2 C 5,0 C 1,1 C 60 % 1029,7 hPa 0,0 l/m 0 min 0 min 0 W/m 6,4 km/h (2 Bft) 95,74 %
28.02.2022 21:32 6,1 C 4,4 C 1,1 C 61 % 1029,6 hPa 0,0 l/m 0 min 0 min 0 W/m 12,9 km/h (3 Bft) 95,74 %
28.02.2022 21:34 6,1 C 4,4 C 1,1 C 61 % 1029,6 hPa 0,0 l/m 0 min 0 min 0 W/m 6,4 km/h (2 Bft) 95,65 %
28.02.2022 21:36 6,1 C 4,4 C 1,1 C 61 % 1029,7 hPa 0,0 l/m 0 min 0 min 0 W/m 9,7 km/h (2 Bft) 95,74 %
28.02.2022 21:38 5,9 C 4,4 C 1,1 C 61 % 1029,6 hPa 0,0 l/m 0 min 0 min 0 W/m 9,7 km/h (2 Bft) 95,74 %
28.02.2022 21:40 5,9 C 4,4 C 1,1 C 62 % 1029,6 hPa 0,0 l/m 0 min 0 min 0 W/m 6,4 km/h (2 Bft) 95,74 %
28.02.2022 21:42 5,8 C 4,4 C 0,6 C 61 % 1029,5 hPa 0,0 l/m 0 min 0 min 0 W/m 6,4 km/h (2 Bft) 93,75 %
28.02.2022 21:44 5,8 C 4,4 C 0,6 C 62 % 1029,6 hPa 0,0 l/m 0 min 0 min 0 W/m 6,4 km/h (2 Bft) 95,74 %
28.02.2022 21:46 5,7 C 4,4 C 0,6 C 62 % 1029,5 hPa 0,0 l/m 0 min 0 min 0 W/m 12,9 km/h (3 Bft) 93,48 %
28.02.2022 21:48 5,7 C 4,4 C 0,6 C 62 % 1029,5 hPa 0,0 l/m 0 min 0 min 0 W/m 9,7 km/h (2 Bft) 97,87 %
28.02.2022 21:50 5,6 C 4,4 C 0,6 C 62 % 1029,5 hPa 0,0 l/m 0 min 0 min 0 W/m 6,4 km/h (2 Bft) 93,62 %
28.02.2022 21:52 5,6 C 4,4 C 0,6 C 63 % 1029,5 hPa 0,0 l/m 0 min 0 min 0 W/m 6,4 km/h (2 Bft) 95,74 %
28.02.2022 21:54 5,5 C 4,4 C 0,6 C 63 % 1029,5 hPa 0,0 l/m 0 min 0 min 0 W/m 12,9 km/h (3 Bft) 97,87 %
28.02.2022 21:56 5,4 C 4,4 C 0,6 C 64 % 1029,4 hPa 0,0 l/m 0 min 0 min 0 W/m 12,9 km/h (3 Bft) 97,83 %
28.02.2022 21:58 5,4 C 4,4 C 0,6 C 64 % 1029,4 hPa 0,0 l/m 0 min 0 min 0 W/m 12,9 km/h (3 Bft) 97,87 %
28.02.2022 22:00 5,3 C 4,4 C 0,6 C 64 % 1029,4 hPa 0,0 l/m 0 min 0 min 0 W/m 9,7 km/h (2 Bft) 97,87 %
28.02.2022 22:02 5,3 C 4,4 C 0,6 C 64 % 1029,4 hPa 0,0 l/m 0 min 0 min 0 W/m 12,9 km/h (3 Bft) 97,87 %
28.02.2022 22:04 5,3 C 4,4 C 0,6 C 64 % 1029,4 hPa 0,0 l/m 0 min 0 min 0 W/m 9,7 km/h (2 Bft) 95,74 %
28.02.2022 22:06 5,2 C 4,4 C 0,6 C 65 % 1029,5 hPa 0,0 l/m 0 min 0 min 0 W/m 9,7 km/h (2 Bft) 95,74 %
28.02.2022 22:08 5,2 C 4,4 C 0,6 C 65 % 1029,5 hPa 0,0 l/m 0 min 0 min 0 W/m 6,4 km/h (2 Bft) 100,00 %
28.02.2022 22:10 5,2 C 4,4 C 0,6 C 65 % 1029,4 hPa 0,0 l/m 0 min 0 min 0 W/m 9,7 km/h (2 Bft) 97,87 %
28.02.2022 22:12 5,2 C 4,4 C 0,6 C 65 % 1029,4 hPa 0,0 l/m 0 min 0 min 0 W/m 16,1 km/h (3 Bft) 100,00 %
28.02.2022 22:14 5,2 C 4,4 C 0,6 C 65 % 1029,4 hPa 0,0 l/m 0 min 0 min 0 W/m 9,7 km/h (2 Bft) 100,00 %
28.02.2022 22:16 5,2 C 4,4 C 0,6 C 65 % 1029,5 hPa 0,0 l/m 0 min 0 min 0 W/m 6,4 km/h (2 Bft) 100,00 %
28.02.2022 22:18 5,2 C 4,4 C 0,6 C 65 % 1029,5 hPa 0,0 l/m 0 min 0 min 0 W/m 16,1 km/h (3 Bft) 100,00 %
28.02.2022 22:20 5,2 C 4,4 C 0,6 C 65 % 1029,5 hPa 0,0 l/m 0 min 0 min 0 W/m 16,1 km/h (3 Bft) 97,83 %
28.02.2022 22:22 5,2 C 4,4 C 1,1 C 65 % 1029,5 hPa 0,0 l/m 0 min 0 min 0 W/m 12,9 km/h (3 Bft) 100,00 %
28.02.2022 22:24 5,2 C 4,4 C 1,1 C 65 % 1029,5 hPa 0,0 l/m 0 min 0 min 0 W/m 16,1 km/h (3 Bft) 100,00 %
28.02.2022 22:26 5,2 C 4,4 C 1,1 C 65 % 1029,6 hPa 0,0 l/m 0 min 0 min 0 W/m 16,1 km/h (3 Bft) 100,00 %
28.02.2022 22:28 5,2 C 4,4 C 1,1 C 64 % 1029,5 hPa 0,0 l/m 0 min 0 min 0 W/m 16,1 km/h (3 Bft) 97,87 %
28.02.2022 22:30 5,3 C 4,4 C 1,1 C 64 % 1029,6 hPa 0,0 l/m 0 min 0 min 0 W/m 19,3 km/h (3 Bft) 100,00 %
28.02.2022 22:32 5,3 C 4,4 C 1,1 C 64 % 1029,5 hPa 0,0 l/m 0 min 0 min 0 W/m 16,1 km/h (3 Bft) 97,83 %
28.02.2022 22:34 5,3 C 4,4 C 1,1 C 64 % 1029,6 hPa 0,0 l/m 0 min 0 min 0 W/m 9,7 km/h (2 Bft) 100,00 %
28.02.2022 22:36 5,3 C 4,4 C 1,1 C 64 % 1029,6 hPa 0,0 l/m 0 min 0 min 0 W/m 9,7 km/h (2 Bft) 97,87 %
28.02.2022 22:38 5,3 C 4,4 C 1,1 C 64 % 1029,6 hPa 0,0 l/m 0 min 0 min 0 W/m 12,9 km/h (3 Bft) 97,87 %
28.02.2022 22:40 5,3 C 4,4 C 1,1 C 64 % 1029,6 hPa 0,0 l/m 0 min 0 min 0 W/m 16,1 km/h (3 Bft) 100,00 %
28.02.2022 22:42 5,3 C 4,4 C 1,1 C 64 % 1029,6 hPa 0,0 l/m 0 min 0 min 0 W/m 9,7 km/h (2 Bft) 100,00 %
28.02.2022 22:44 5,3 C 4,4 C 1,1 C 64 % 1029,6 hPa 0,0 l/m 0 min 0 min 0 W/m 16,1 km/h (3 Bft) 97,87 %
28.02.2022 22:46 5,3 C 4,4 C 1,1 C 64 % 1029,7 hPa 0,0 l/m 0 min 0 min 0 W/m 6,4 km/h (2 Bft) 100,00 %
28.02.2022 22:48 5,3 C 4,4 C 0,6 C 64 % 1029,7 hPa 0,0 l/m 0 min 0 min 0 W/m 6,4 km/h (2 Bft) 97,87 %
28.02.2022 22:50 5,3 C 4,4 C 0,6 C 64 % 1029,7 hPa 0,0 l/m 0 min 0 min 0 W/m 6,4 km/h (2 Bft) 97,87 %
28.02.2022 22:52 5,3 C 4,4 C 0,6 C 64 % 1029,8 hPa 0,0 l/m 0 min 0 min 0 W/m 9,7 km/h (2 Bft) 97,87 %
28.02.2022 22:54 5,3 C 4,4 C 0,6 C 64 % 1029,8 hPa 0,0 l/m 0 min 0 min 0 W/m 3,2 km/h (1 Bft) 100,00 %
28.02.2022 22:56 5,3 C 4,4 C 0,6 C 64 % 1029,7 hPa 0,0 l/m 0 min 0 min 0 W/m 6,4 km/h (2 Bft) 97,87 %
28.02.2022 22:58 5,3 C 3,9 C 0,6 C 64 % 1029,8 hPa 0,0 l/m 0 min 0 min 0 W/m 6,4 km/h (2 Bft) 100,00 %
28.02.2022 23:00 5,2 C 3,9 C 0,6 C 64 % 1029,7 hPa 0,0 l/m 0 min 0 min 0 W/m 9,7 km/h (2 Bft) 100,00 %
28.02.2022 23:02 5,2 C 3,9 C 0,6 C 64 % 1029,7 hPa 0,0 l/m 0 min 0 min 0 W/m 6,4 km/h (2 Bft) 97,44 %
28.02.2022 23:04 5,2 C 3,9 C 0,6 C 64 % 1029,7 hPa 0,0 l/m 0 min 0 min 0 W/m 6,4 km/h (2 Bft) 97,87 %
28.02.2022 23:06 5,1 C 3,9 C 0,6 C 64 % 1029,8 hPa 0,0 l/m 0 min 0 min 0 W/m 3,2 km/h (1 Bft) 95,65 %
28.02.2022 23:08 5,1 C 3,9 C 0,0 C 64 % 1029,8 hPa 0,0 l/m 0 min 0 min 0 W/m 3,2 km/h (1 Bft) 95,74 %
28.02.2022 23:10 5,1 C 3,9 C 0,0 C 65 % 1029,9 hPa 0,0 l/m 0 min 0 min 0 W/m 3,2 km/h (1 Bft) 95,74 %
28.02.2022 23:12 5,1 C 3,9 C 0,0 C 65 % 1029,8 hPa 0,0 l/m 0 min 0 min 0 W/m 6,4 km/h (2 Bft) 95,74 %
28.02.2022 23:14 5,0 C 3,9 C 0,0 C 65 % 1029,8 hPa 0,0 l/m 0 min 0 min 0 W/m 6,4 km/h (2 Bft) 95,74 %
28.02.2022 23:16 4,9 C 3,9 C 0,0 C 65 % 1029,8 hPa 0,0 l/m 0 min 0 min 0 W/m 6,4 km/h (2 Bft) 91,49 %
28.02.2022 23:18 4,9 C 3,9 C 0,0 C 65 % 1029,7 hPa 0,0 l/m 0 min 0 min 0 W/m 6,4 km/h (2 Bft) 95,65 %
28.02.2022 23:20 4,9 C 3,9 C 0,0 C 65 % 1029,7 hPa 0,0 l/m 0 min 0 min 0 W/m 9,7 km/h (2 Bft) 93,62 %
28.02.2022 23:22 4,8 C 3,9 C 0,0 C 65 % 1029,7 hPa 0,0 l/m 0 min 0 min 0 W/m 6,4 km/h (2 Bft) 95,74 %
28.02.2022 23:24 4,8 C 3,9 C 0,0 C 65 % 1029,7 hPa 0,0 l/m 0 min 0 min 0 W/m 6,4 km/h (2 Bft) 93,62 %
28.02.2022 23:26 4,8 C 3,9 C 0,0 C 65 % 1029,7 hPa 0,0 l/m 0 min 0 min 0 W/m 9,7 km/h (2 Bft) 95,74 %
28.02.2022 23:28 4,8 C 3,9 C 0,0 C 66 % 1029,6 hPa 0,0 l/m 0 min 0 min 0 W/m 9,7 km/h (2 Bft) 95,65 %
28.02.2022 23:30 4,7 C 3,9 C 0,0 C 66 % 1029,6 hPa 0,0 l/m 0 min 0 min 0 W/m 9,7 km/h (2 Bft) 93,62 %
28.02.2022 23:32 4,7 C 3,9 C 0,0 C 66 % 1029,6 hPa 0,0 l/m 0 min 0 min 0 W/m 6,4 km/h (2 Bft) 100,00 %
28.02.2022 23:34 4,7 C 3,9 C 0,0 C 66 % 1029,6 hPa 0,0 l/m 0 min 0 min 0 W/m 6,4 km/h (2 Bft) 100,00 %
28.02.2022 23:36 4,7 C 3,3 C 0,0 C 66 % 1029,6 hPa 0,0 l/m 0 min 0 min 0 W/m 6,4 km/h (2 Bft) 97,87 %
28.02.2022 23:38 4,6 C 3,3 C 0,0 C 66 % 1029,6 hPa 0,0 l/m 0 min 0 min 0 W/m 3,2 km/h (1 Bft) 97,87 %
28.02.2022 23:40 4,6 C 3,3 C 0,0 C 66 % 1029,6 hPa 0,0 l/m 0 min 0 min 0 W/m 12,9 km/h (3 Bft) 97,87 %
28.02.2022 23:42 4,6 C 3,3 C 0,0 C 66 % 1029,6 hPa 0,0 l/m 0 min 0 min 0 W/m 3,2 km/h (1 Bft) 100,00 %
28.02.2022 23:44 4,6 C 3,3 C 0,0 C 66 % 1029,6 hPa 0,0 l/m 0 min 0 min 0 W/m 3,2 km/h (1 Bft) 100,00 %
28.02.2022 23:46 4,5 C 3,3 C 0,0 C 66 % 1029,7 hPa 0,0 l/m 0 min 0 min 0 W/m 6,4 km/h (2 Bft) 97,87 %
28.02.2022 23:48 4,5 C 3,3 C 0,0 C 67 % 1029,7 hPa 0,0 l/m 0 min 0 min 0 W/m 9,7 km/h (2 Bft) 100,00 %
28.02.2022 23:50 4,4 C 3,3 C 0,0 C 67 % 1029,6 hPa 0,0 l/m 0 min 0 min 0 W/m 6,4 km/h (2 Bft) 95,74 %
28.02.2022 23:52 4,4 C 3,3 C 0,0 C 67 % 1029,6 hPa 0,0 l/m 0 min 0 min 0 W/m 12,9 km/h (3 Bft) 97,83 %
28.02.2022 23:54 4,4 C 3,3 C 0,0 C 67 % 1029,6 hPa 0,0 l/m 0 min 0 min 0 W/m 6,4 km/h (2 Bft) 100,00 %
28.02.2022 23:56 4,3 C 3,3 C 0,0 C 67 % 1029,6 hPa 0,0 l/m 0 min 0 min 0 W/m 12,9 km/h (3 Bft) 100,00 %
28.02.2022 23:58 4,3 C 3,3 C 0,0 C 67 % 1029,6 hPa 0,0 l/m 0 min 0 min 0 W/m 6,4 km/h (2 Bft) 100,00 %
_ Min-Zeit 07:38 05:10 05:14 15:28 18:02 - - - - 04:02 05:52
Minimum _ 0,7 C 0,0 C -3,3 C 44 % 1028,9 hPa - - - - 3,2 km/h (1 Bft) 48,78 %
_ Max-Zeit 15:48 13:36 11:34 07:30 11:42 00:00 08:48 00:00 13:06 00:02 00:00
Maximum _ 12,2 C 18,9 C 10,0 C 81 % 1032,0 hPa 0,0 l/m 2 min 0 min 593 W/m 38,6 km/h
O-SO (5 Bft)
100,00 %
Durchschnitt _ 5,9 C 6,5 C 1,7 C 64 % 1030,7 hPa #0,0 l/m #6:54 h #0 min. 289 W/m 16,3 km/h (3 Bft) 97,37 %
© 2022 W. Hausmann